GFSGBSN_prec_pwat_000.txt.gz
Precipitable_Water
0.78 0.76 0.75 0.77 0.75 0.72 0.73 0.73 0.71 0.72 0.71 0.68 0.65 0.62 0.59 0.57 0.55 0.55 0.57 0.59 0.58 0.55 0.54 0.54 0.55 0.51 0.45 0.28 0.24 0.42 0.45 0.45 0.42 0.35 0.31 0.29 0.28 0.25 0.20 0.24 0.23 0.18 0.22 0.25 0.26 0.27 0.22
0.78 0.76 0.78 0.77 0.74 0.73 0.71 0.70 0.69 0.67 0.65 0.64 0.62 0.60 0.58 0.58 0.58 0.59 0.59 0.59 0.57 0.54 0.52 0.54 0.53 0.54 0.38 0.20 0.39 0.42 0.42 0.40 0.37 0.35 0.32 0.31 0.31 0.32 0.28 0.28 0.27 0.28 0.26 0.28 0.29 0.28 0.28
0.78 0.77 0.80 0.77 0.74 0.71 0.70 0.67 0.65 0.64 0.64 0.63 0.62 0.60 0.60 0.59 0.59 0.57 0.57 0.57 0.56 0.56 0.58 0.57 0.56 0.50 0.38 0.26 0.41 0.43 0.41 0.38 0.36 0.33 0.30 0.34 0.37 0.35 0.35 0.32 0.36 0.32 0.26 0.27 0.30 0.30 0.27
0.78 0.81 0.81 0.77 0.73 0.70 0.67 0.65 0.64 0.64 0.63 0.63 0.62 0.60 0.59 0.58 0.57 0.56 0.56 0.56 0.58 0.58 0.57 0.59 0.58 0.46 0.25 0.40 0.44 0.40 0.40 0.34 0.34 0.39 0.38 0.41 0.41 0.36 0.33 0.34 0.33 0.28 0.25 0.20 0.26 0.30 0.28
0.81 0.83 0.81 0.78 0.73 0.71 0.67 0.64 0.63 0.62 0.62 0.61 0.60 0.59 0.58 0.57 0.56 0.56 0.55 0.53 0.52 0.55 0.61 0.60 0.52 0.48 0.25 0.41 0.30 0.37 0.36 0.26 0.33 0.40 0.43 0.45 0.42 0.31 0.30 0.18 0.21 0.20 0.15 0.19 0.22 0.30 0.28
0.84 0.83 0.82 0.79 0.74 0.70 0.65 0.63 0.62 0.61 0.60 0.59 0.59 0.58 0.56 0.55 0.54 0.53 0.51 0.52 0.54 0.55 0.60 0.60 0.53 0.35 0.34 0.28 0.31 0.31 0.30 0.27 0.29 0.33 0.34 0.32 0.33 0.27 0.25 0.18 0.12 0.14 0.14 0.18 0.22 0.28 0.29
0.84 0.83 0.82 0.80 0.74 0.68 0.64 0.62 0.60 0.59 0.58 0.57 0.56 0.55 0.54 0.53 0.53 0.53 0.54 0.55 0.40 0.34 0.41 0.31 0.30 0.31 0.29 0.31 0.35 0.28 0.26 0.30 0.32 0.29 0.21 0.25 0.24 0.22 0.23 0.23 0.23 0.21 0.17 0.19 0.26 0.30 0.26
0.82 0.83 0.84 0.82 0.74 0.69 0.65 0.62 0.58 0.57 0.56 0.54 0.53 0.52 0.51 0.51 0.53 0.66 0.71 0.53 0.55 0.50 0.27 0.33 0.29 0.29 0.26 0.30 0.24 0.26 0.23 0.21 0.23 0.18 0.20 0.23 0.19 0.28 0.26 0.25 0.24 0.22 0.18 0.20 0.22 0.28 0.29
0.77 0.82 0.85 0.83 0.77 0.71 0.67 0.62 0.59 0.56 0.55 0.53 0.51 0.52 0.51 0.49 0.55 0.62 0.51 0.53 0.71 0.61 0.31 0.23 0.26 0.25 0.26 0.28 0.24 0.23 0.23 0.25 0.22 0.19 0.18 0.17 0.22 0.27 0.23 0.22 0.21 0.22 0.18 0.19 0.22 0.28 0.33
0.71 0.78 0.83 0.83 0.80 0.73 0.69 0.65 0.62 0.58 0.54 0.54 0.50 0.51 0.52 0.51 0.42 0.55 0.50 0.58 0.67 0.72 0.25 0.23 0.25 0.28 0.28 0.30 0.25 0.35 0.34 0.32 0.26 0.19 0.18 0.20 0.28 0.24 0.20 0.24 0.24 0.18 0.26 0.27 0.27 0.26 0.21
0.67 0.71 0.76 0.81 0.81 0.74 0.69 0.66 0.64 0.63 0.57 0.55 0.50 0.51 0.51 0.53 0.56 0.42 0.52 0.54 0.64 0.60 0.12 0.28 0.25 0.36 0.34 0.27 0.27 0.32 0.43 0.36 0.25 0.22 0.22 0.23 0.23 0.26 0.26 0.27 0.31 0.24 0.30 0.28 0.29 0.29 0.29
0.64 0.66 0.70 0.76 0.79 0.76 0.71 0.67 0.66 0.66 0.62 0.58 0.54 0.59 0.55 0.54 0.59 0.57 0.63 0.57 0.55 0.35 0.15 0.25 0.31 0.30 0.30 0.32 0.31 0.38 0.40 0.45 0.41 0.35 0.35 0.30 0.34 0.32 0.33 0.37 0.35 0.35 0.30 0.29 0.34 0.31 0.21
0.64 0.65 0.66 0.70 0.77 0.76 0.71 0.68 0.69 0.68 0.65 0.63 0.63 0.61 0.62 0.68 0.47 0.66 0.62 0.56 0.36 0.20 0.35 0.28 0.28 0.28 0.31 0.30 0.30 0.34 0.34 0.32 0.29 0.21 0.24 0.32 0.32 0.37 0.40 0.32 0.34 0.34 0.27 0.18 0.17 0.20 0.20
0.69 0.67 0.67 0.69 0.74 0.76 0.72 0.69 0.69 0.69 0.67 0.67 0.71 0.73 0.68 0.71 0.78 0.69 0.61 0.47 0.25 0.31 0.29 0.37 0.32 0.31 0.30 0.32 0.31 0.35 0.33 0.32 0.40 0.34 0.30 0.27 0.23 0.35 0.40 0.35 0.33 0.35 0.31 0.22 0.15 0.18 0.21
0.72 0.68 0.67 0.70 0.72 0.76 0.74 0.72 0.69 0.70 0.68 0.73 0.77 0.73 0.64 0.66 0.75 0.71 0.56 0.31 0.28 0.33 0.36 0.33 0.33 0.29 0.30 0.33 0.33 0.36 0.38 0.37 0.41 0.40 0.29 0.30 0.28 0.42 0.41 0.43 0.42 0.35 0.29 0.39 0.30 0.32 0.26
0.70 0.69 0.68 0.70 0.73 0.75 0.77 0.75 0.71 0.73 0.73 0.80 0.74 0.68 0.55 0.70 0.75 0.78 0.47 0.31 0.36 0.41 0.38 0.38 0.29 0.34 0.31 0.36 0.35 0.36 0.36 0.44 0.42 0.44 0.47 0.40 0.28 0.40 0.41 0.45 0.47 0.41 0.44 0.32 0.35 0.23 0.22
0.67 0.67 0.66 0.70 0.73 0.74 0.79 0.76 0.75 0.75 0.85 0.92 0.87 0.53 0.60 0.81 0.87 0.59 0.35 0.36 0.37 0.41 0.42 0.39 0.37 0.36 0.38 0.36 0.39 0.37 0.39 0.45 0.47 0.43 0.49 0.45 0.38 0.32 0.40 0.39 0.38 0.37 0.38 0.41 0.41 0.37 0.27
0.68 0.62 0.65 0.67 0.73 0.75 0.77 0.77 0.78 0.81 0.91 0.96 0.83 0.44 0.68 0.88 0.51 0.50 0.38 0.41 0.45 0.43 0.47 0.44 0.46 0.44 0.41 0.41 0.38 0.38 0.38 0.43 0.52 0.51 0.40 0.46 0.38 0.30 0.34 0.47 0.50 0.46 0.42 0.42 0.33 0.30 0.34
0.69 0.61 0.62 0.68 0.71 0.75 0.76 0.77 0.78 0.79 0.88 0.78 0.59 0.56 0.82 0.83 0.37 0.40 0.45 0.44 0.46 0.46 0.48 0.47 0.43 0.45 0.46 0.41 0.37 0.43 0.45 0.54 0.55 0.50 0.42 0.45 0.33 0.23 0.25 0.38 0.42 0.36 0.37 0.40 0.41 0.39 0.31
0.70 0.64 0.63 0.69 0.72 0.75 0.75 0.76 0.75 0.76 0.81 0.80 0.58 0.39 0.56 0.63 0.60 0.42 0.39 0.40 0.39 0.49 0.46 0.49 0.46 0.51 0.47 0.45 0.49 0.43 0.43 0.51 0.55 0.49 0.50 0.47 0.34 0.29 0.23 0.29 0.39 0.32 0.32 0.37 0.39 0.31 0.32
0.72 0.68 0.68 0.72 0.74 0.74 0.75 0.76 0.74 0.71 0.76 0.76 0.58 0.43 0.56 0.43 0.45 0.47 0.48 0.45 0.40 0.40 0.45 0.46 0.44 0.43 0.40 0.34 0.37 0.37 0.43 0.45 0.46 0.48 0.48 0.45 0.32 0.36 0.36 0.40 0.42 0.37 0.36 0.39 0.37 0.35 0.32
0.77 0.73 0.73 0.74 0.75 0.75 0.76 0.77 0.75 0.72 0.78 0.59 0.44 0.45 0.51 0.47 0.50 0.44 0.44 0.39 0.39 0.41 0.43 0.39 0.39 0.42 0.42 0.35 0.36 0.32 0.38 0.39 0.37 0.41 0.39 0.43 0.30 0.38 0.29 0.39 0.42 0.35 0.38 0.38 0.38 0.37 0.36
0.84 0.79 0.77 0.77 0.77 0.78 0.78 0.78 0.77 0.75 0.82 0.58 0.64 0.63 0.47 0.41 0.39 0.35 0.36 0.37 0.38 0.42 0.45 0.47 0.45 0.40 0.38 0.40 0.48 0.50 0.48 0.43 0.39 0.34 0.34 0.38 0.35 0.35 0.28 0.39 0.40 0.29 0.33 0.33 0.35 0.36 0.36
0.90 0.86 0.83 0.82 0.81 0.80 0.80 0.79 0.80 0.79 0.86 0.74 0.66 0.59 0.39 0.31 0.35 0.33 0.40 0.41 0.39 0.42 0.41 0.47 0.48 0.44 0.50 0.60 0.59 0.53 0.48 0.41 0.37 0.36 0.43 0.36 0.38 0.41 0.35 0.38 0.25 0.33 0.40 0.39 0.36 0.38 0.40
0.95 0.91 0.88 0.87 0.86 0.84 0.83 0.82 0.82 0.82 0.86 0.78 0.75 0.62 0.45 0.32 0.39 0.37 0.39 0.42 0.45 0.46 0.46 0.50 0.52 0.58 0.65 0.59 0.45 0.34 0.30 0.31 0.35 0.43 0.46 0.52 0.46 0.39 0.32 0.32 0.34 0.35 0.37 0.37 0.36 0.35 0.46
0.94 0.94 0.92 0.90 0.90 0.90 0.88 0.86 0.85 0.84 0.84 0.85 0.80 0.78 0.57 0.39 0.35 0.44 0.38 0.41 0.37 0.40 0.43 0.50 0.62 0.67 0.64 0.52 0.44 0.31 0.25 0.32 0.30 0.34 0.51 0.51 0.51 0.41 0.36 0.29 0.24 0.32 0.41 0.47 0.51 0.30 0.49
0.93 0.93 0.93 0.92 0.91 0.92 0.91 0.91 0.89 0.87 0.85 0.84 0.82 0.87 0.65 0.43 0.49 0.49 0.39 0.40 0.51 0.48 0.43 0.51 0.56 0.56 0.64 0.48 0.39 0.35 0.32 0.40 0.31 0.32 0.35 0.39 0.41 0.35 0.34 0.31 0.34 0.40 0.45 0.54 0.32 0.32 0.51
0.88 0.92 0.92 0.91 0.91 0.92 0.92 0.94 0.94 0.92 0.90 0.84 0.79 0.90 0.66 0.51 0.55 0.59 0.59 0.51 0.55 0.55 0.45 0.55 0.54 0.56 0.55 0.45 0.42 0.39 0.38 0.41 0.40 0.42 0.39 0.37 0.37 0.35 0.36 0.32 0.27 0.50 0.51 0.42 0.49 0.56 0.55
0.87 0.88 0.89 0.89 0.88 0.90 0.91 0.93 0.95 0.94 0.94 0.92 0.72 0.93 0.92 0.65 0.58 0.75 0.75 0.78 0.75 0.71 0.62 0.65 0.60 0.58 0.60 0.51 0.51 0.50 0.44 0.48 0.44 0.36 0.50 0.39 0.44 0.38 0.38 0.36 0.48 0.55 0.53 0.56 0.59 0.55 0.53

GFSGBSN_prec_pwat_003.txt.gz
Precipitable_Water
0.74 0.73 0.74 0.78 0.77 0.77 0.75 0.74 0.72 0.73 0.72 0.68 0.65 0.63 0.60 0.57 0.55 0.55 0.59 0.60 0.57 0.58 0.58 0.58 0.57 0.55 0.43 0.26 0.27 0.43 0.44 0.43 0.40 0.37 0.31 0.27 0.22 0.21 0.17 0.20 0.21 0.20 0.22 0.24 0.27 0.26 0.25
0.74 0.76 0.78 0.81 0.79 0.77 0.76 0.73 0.72 0.70 0.68 0.65 0.63 0.59 0.57 0.55 0.56 0.58 0.61 0.60 0.58 0.58 0.57 0.55 0.57 0.55 0.36 0.18 0.38 0.41 0.41 0.40 0.36 0.31 0.28 0.28 0.28 0.29 0.25 0.24 0.21 0.25 0.24 0.27 0.30 0.30 0.28
0.78 0.82 0.80 0.80 0.79 0.77 0.75 0.72 0.70 0.67 0.65 0.62 0.60 0.59 0.58 0.59 0.59 0.59 0.59 0.59 0.58 0.55 0.57 0.58 0.55 0.47 0.33 0.26 0.40 0.42 0.40 0.36 0.36 0.33 0.32 0.36 0.37 0.32 0.31 0.27 0.31 0.30 0.24 0.27 0.28 0.29 0.27
0.83 0.82 0.82 0.80 0.78 0.75 0.73 0.69 0.66 0.65 0.63 0.62 0.61 0.59 0.58 0.57 0.58 0.59 0.59 0.57 0.56 0.59 0.58 0.56 0.53 0.44 0.24 0.38 0.41 0.38 0.37 0.32 0.33 0.39 0.38 0.41 0.41 0.34 0.30 0.30 0.30 0.24 0.24 0.18 0.26 0.28 0.29
0.83 0.83 0.84 0.82 0.78 0.74 0.71 0.67 0.65 0.64 0.62 0.61 0.60 0.59 0.58 0.58 0.59 0.58 0.57 0.58 0.59 0.58 0.58 0.57 0.48 0.40 0.23 0.39 0.30 0.34 0.30 0.22 0.29 0.37 0.40 0.42 0.37 0.28 0.28 0.18 0.21 0.18 0.15 0.19 0.22 0.30 0.29
0.83 0.83 0.84 0.82 0.77 0.71 0.68 0.66 0.63 0.62 0.61 0.60 0.58 0.58 0.58 0.58 0.57 0.56 0.57 0.57 0.56 0.57 0.56 0.56 0.51 0.29 0.31 0.24 0.29 0.27 0.27 0.28 0.31 0.33 0.32 0.31 0.32 0.23 0.21 0.18 0.11 0.14 0.13 0.17 0.21 0.27 0.29
0.82 0.84 0.85 0.80 0.75 0.69 0.67 0.64 0.62 0.60 0.58 0.57 0.56 0.55 0.55 0.54 0.55 0.62 0.59 0.52 0.38 0.34 0.39 0.29 0.31 0.29 0.25 0.29 0.33 0.26 0.23 0.26 0.28 0.26 0.19 0.26 0.22 0.20 0.22 0.23 0.22 0.21 0.20 0.17 0.24 0.28 0.25
0.82 0.85 0.86 0.81 0.74 0.68 0.66 0.63 0.60 0.59 0.58 0.55 0.53 0.52 0.52 0.52 0.61 0.61 0.58 0.42 0.48 0.52 0.27 0.29 0.29 0.26 0.27 0.30 0.21 0.22 0.22 0.21 0.23 0.18 0.20 0.21 0.18 0.25 0.25 0.23 0.22 0.22 0.20 0.16 0.19 0.27 0.28
0.80 0.85 0.85 0.83 0.75 0.70 0.65 0.62 0.58 0.58 0.56 0.54 0.52 0.51 0.49 0.51 0.58 0.51 0.47 0.52 0.67 0.64 0.25 0.23 0.28 0.25 0.26 0.28 0.23 0.23 0.27 0.27 0.24 0.20 0.20 0.17 0.21 0.26 0.23 0.22 0.21 0.20 0.18 0.20 0.22 0.28 0.33
0.76 0.81 0.84 0.83 0.76 0.71 0.66 0.63 0.60 0.56 0.55 0.52 0.50 0.50 0.48 0.48 0.50 0.51 0.47 0.60 0.69 0.70 0.20 0.21 0.23 0.26 0.28 0.27 0.24 0.34 0.36 0.33 0.27 0.20 0.20 0.22 0.26 0.25 0.25 0.24 0.27 0.19 0.26 0.26 0.25 0.25 0.20
0.71 0.73 0.77 0.80 0.78 0.72 0.68 0.65 0.64 0.58 0.56 0.51 0.51 0.50 0.50 0.51 0.45 0.42 0.51 0.59 0.70 0.68 0.08 0.27 0.25 0.38 0.34 0.24 0.26 0.34 0.46 0.36 0.27 0.24 0.24 0.24 0.24 0.26 0.26 0.29 0.31 0.24 0.30 0.28 0.28 0.29 0.28
0.68 0.68 0.70 0.76 0.77 0.73 0.69 0.66 0.66 0.62 0.57 0.52 0.54 0.54 0.52 0.53 0.51 0.58 0.61 0.57 0.59 0.30 0.12 0.24 0.31 0.30 0.28 0.30 0.32 0.40 0.39 0.44 0.40 0.35 0.35 0.32 0.36 0.35 0.34 0.36 0.36 0.35 0.29 0.29 0.33 0.30 0.20
0.67 0.67 0.68 0.71 0.76 0.73 0.69 0.67 0.66 0.64 0.60 0.57 0.58 0.60 0.56 0.61 0.40 0.61 0.63 0.56 0.30 0.14 0.33 0.26 0.26 0.29 0.30 0.28 0.31 0.35 0.33 0.31 0.27 0.21 0.24 0.33 0.35 0.40 0.42 0.33 0.37 0.34 0.24 0.17 0.17 0.18 0.17
0.68 0.67 0.68 0.70 0.74 0.74 0.70 0.67 0.67 0.65 0.63 0.65 0.63 0.60 0.60 0.64 0.72 0.66 0.57 0.48 0.18 0.27 0.28 0.36 0.32 0.32 0.26 0.30 0.32 0.34 0.33 0.30 0.37 0.34 0.30 0.25 0.22 0.37 0.43 0.36 0.33 0.33 0.29 0.20 0.14 0.16 0.19
0.72 0.68 0.68 0.70 0.74 0.75 0.72 0.67 0.67 0.67 0.65 0.68 0.73 0.68 0.56 0.65 0.74 0.72 0.53 0.29 0.26 0.31 0.35 0.32 0.32 0.28 0.29 0.33 0.33 0.34 0.35 0.36 0.40 0.41 0.28 0.28 0.26 0.43 0.44 0.43 0.42 0.34 0.29 0.38 0.28 0.31 0.24
0.75 0.69 0.67 0.70 0.73 0.75 0.74 0.70 0.69 0.71 0.69 0.77 0.68 0.57 0.53 0.71 0.78 0.73 0.41 0.29 0.32 0.39 0.39 0.38 0.28 0.33 0.29 0.35 0.35 0.36 0.36 0.43 0.40 0.45 0.47 0.40 0.28 0.39 0.41 0.47 0.46 0.40 0.43 0.30 0.32 0.21 0.18
0.73 0.72 0.66 0.69 0.73 0.74 0.76 0.73 0.70 0.74 0.75 0.85 0.74 0.40 0.59 0.87 0.84 0.53 0.31 0.32 0.37 0.45 0.45 0.39 0.36 0.36 0.38 0.36 0.38 0.36 0.37 0.43 0.46 0.46 0.48 0.42 0.36 0.31 0.39 0.36 0.34 0.36 0.34 0.37 0.36 0.33 0.22
0.72 0.67 0.68 0.67 0.69 0.74 0.76 0.75 0.76 0.81 0.89 0.93 0.68 0.35 0.74 0.82 0.45 0.44 0.36 0.39 0.44 0.43 0.48 0.44 0.45 0.42 0.40 0.40 0.37 0.37 0.37 0.43 0.53 0.49 0.36 0.42 0.33 0.23 0.29 0.40 0.44 0.41 0.37 0.37 0.28 0.26 0.29
0.73 0.67 0.63 0.67 0.69 0.72 0.74 0.77 0.78 0.84 0.93 0.80 0.58 0.53 0.76 0.73 0.38 0.37 0.42 0.41 0.46 0.44 0.45 0.45 0.42 0.46 0.47 0.40 0.35 0.41 0.44 0.53 0.53 0.48 0.39 0.40 0.29 0.20 0.26 0.37 0.40 0.35 0.37 0.39 0.39 0.38 0.30
0.74 0.70 0.62 0.66 0.69 0.71 0.73 0.76 0.77 0.78 0.89 0.80 0.56 0.42 0.57 0.62 0.55 0.42 0.37 0.37 0.38 0.48 0.45 0.47 0.45 0.47 0.44 0.41 0.44 0.38 0.40 0.48 0.52 0.47 0.47 0.45 0.33 0.27 0.21 0.26 0.33 0.29 0.35 0.40 0.39 0.31 0.32
0.73 0.71 0.63 0.65 0.70 0.71 0.73 0.75 0.73 0.72 0.86 0.76 0.54 0.48 0.57 0.40 0.42 0.43 0.44 0.40 0.37 0.35 0.43 0.46 0.41 0.39 0.35 0.29 0.32 0.32 0.37 0.39 0.43 0.45 0.44 0.42 0.28 0.30 0.33 0.37 0.38 0.35 0.35 0.36 0.35 0.35 0.31
0.75 0.72 0.68 0.67 0.70 0.72 0.74 0.73 0.74 0.71 0.79 0.59 0.46 0.47 0.53 0.49 0.48 0.43 0.42 0.37 0.37 0.39 0.40 0.36 0.36 0.40 0.39 0.32 0.33 0.31 0.37 0.36 0.32 0.36 0.37 0.42 0.27 0.32 0.26 0.34 0.36 0.33 0.36 0.38 0.35 0.34 0.34
0.78 0.74 0.71 0.71 0.73 0.74 0.73 0.73 0.74 0.75 0.78 0.55 0.59 0.60 0.46 0.44 0.40 0.36 0.37 0.36 0.37 0.40 0.41 0.42 0.41 0.38 0.34 0.38 0.44 0.45 0.47 0.45 0.42 0.38 0.37 0.39 0.35 0.34 0.26 0.36 0.39 0.28 0.34 0.35 0.36 0.37 0.36
0.85 0.79 0.76 0.75 0.76 0.78 0.76 0.75 0.75 0.78 0.81 0.66 0.64 0.52 0.36 0.29 0.33 0.32 0.36 0.37 0.36 0.37 0.34 0.41 0.44 0.38 0.46 0.58 0.54 0.51 0.48 0.43 0.41 0.40 0.44 0.35 0.37 0.39 0.31 0.37 0.25 0.33 0.42 0.40 0.36 0.37 0.39
0.92 0.88 0.83 0.80 0.79 0.79 0.79 0.78 0.77 0.79 0.86 0.73 0.72 0.54 0.40 0.30 0.36 0.36 0.38 0.37 0.40 0.41 0.40 0.41 0.47 0.52 0.59 0.51 0.38 0.29 0.30 0.30 0.34 0.42 0.44 0.47 0.42 0.36 0.31 0.32 0.35 0.37 0.38 0.36 0.35 0.35 0.43
0.95 0.94 0.91 0.87 0.85 0.83 0.82 0.81 0.80 0.80 0.86 0.81 0.74 0.69 0.51 0.35 0.33 0.41 0.37 0.39 0.35 0.37 0.39 0.44 0.56 0.62 0.58 0.45 0.37 0.29 0.26 0.31 0.29 0.33 0.48 0.50 0.52 0.43 0.37 0.30 0.24 0.34 0.42 0.47 0.49 0.31 0.52
0.97 0.97 0.96 0.92 0.90 0.88 0.86 0.85 0.85 0.83 0.84 0.85 0.77 0.79 0.58 0.40 0.45 0.45 0.36 0.35 0.42 0.39 0.37 0.45 0.50 0.50 0.59 0.43 0.35 0.34 0.34 0.41 0.31 0.31 0.33 0.39 0.42 0.37 0.35 0.32 0.35 0.42 0.47 0.52 0.32 0.36 0.53
0.95 0.96 0.97 0.96 0.93 0.91 0.90 0.90 0.90 0.88 0.85 0.84 0.79 0.87 0.64 0.48 0.50 0.54 0.53 0.44 0.45 0.45 0.37 0.48 0.48 0.49 0.49 0.41 0.40 0.40 0.38 0.40 0.40 0.42 0.40 0.39 0.37 0.35 0.37 0.33 0.28 0.50 0.51 0.41 0.49 0.56 0.56
0.93 0.95 0.95 0.94 0.94 0.93 0.93 0.93 0.95 0.94 0.91 0.88 0.72 0.88 0.83 0.56 0.52 0.71 0.70 0.70 0.64 0.62 0.55 0.57 0.52 0.51 0.55 0.47 0.48 0.47 0.42 0.46 0.43 0.35 0.49 0.40 0.44 0.40 0.42 0.39 0.51 0.55 0.54 0.58 0.61 0.57 0.56

GFSGBSN_prec_pwat_006.txt.gz
Precipitable_Water
0.71 0.72 0.75 0.76 0.75 0.75 0.77 0.75 0.72 0.74 0.74 0.74 0.74 0.70 0.64 0.59 0.57 0.55 0.56 0.58 0.57 0.59 0.59 0.58 0.58 0.59 0.45 0.29 0.30 0.44 0.43 0.40 0.39 0.36 0.30 0.25 0.20 0.20 0.17 0.17 0.19 0.19 0.23 0.26 0.28 0.26 0.25
0.74 0.78 0.79 0.78 0.77 0.78 0.78 0.74 0.74 0.74 0.74 0.70 0.65 0.61 0.58 0.57 0.55 0.56 0.60 0.59 0.60 0.59 0.57 0.60 0.61 0.59 0.35 0.20 0.42 0.44 0.41 0.38 0.37 0.36 0.32 0.28 0.25 0.25 0.20 0.18 0.19 0.24 0.25 0.27 0.30 0.29 0.28
0.79 0.80 0.80 0.82 0.81 0.79 0.77 0.74 0.72 0.68 0.65 0.62 0.59 0.57 0.56 0.57 0.58 0.62 0.61 0.59 0.57 0.57 0.61 0.60 0.57 0.50 0.30 0.28 0.41 0.42 0.40 0.38 0.35 0.35 0.31 0.35 0.35 0.28 0.28 0.25 0.31 0.29 0.22 0.25 0.27 0.28 0.27
0.82 0.82 0.83 0.84 0.82 0.80 0.76 0.73 0.69 0.67 0.64 0.63 0.62 0.60 0.58 0.58 0.60 0.60 0.58 0.57 0.56 0.60 0.61 0.57 0.57 0.45 0.24 0.40 0.42 0.36 0.34 0.30 0.32 0.38 0.36 0.40 0.41 0.32 0.29 0.29 0.27 0.23 0.22 0.17 0.26 0.28 0.29
0.82 0.85 0.85 0.84 0.79 0.77 0.75 0.71 0.68 0.66 0.65 0.63 0.60 0.59 0.58 0.59 0.59 0.59 0.58 0.57 0.59 0.59 0.59 0.56 0.43 0.34 0.21 0.39 0.28 0.31 0.28 0.23 0.32 0.35 0.40 0.41 0.36 0.26 0.24 0.20 0.19 0.19 0.13 0.17 0.22 0.30 0.30
0.81 0.85 0.86 0.82 0.76 0.75 0.73 0.69 0.66 0.65 0.64 0.62 0.60 0.59 0.60 0.59 0.58 0.58 0.58 0.58 0.58 0.57 0.53 0.49 0.44 0.27 0.28 0.21 0.27 0.28 0.25 0.30 0.30 0.32 0.30 0.31 0.29 0.21 0.22 0.18 0.10 0.14 0.14 0.16 0.17 0.25 0.29
0.81 0.85 0.85 0.81 0.75 0.72 0.70 0.67 0.65 0.63 0.62 0.59 0.59 0.59 0.57 0.58 0.65 0.67 0.60 0.52 0.36 0.31 0.35 0.28 0.28 0.25 0.23 0.29 0.31 0.22 0.23 0.29 0.29 0.25 0.20 0.26 0.21 0.19 0.22 0.21 0.21 0.21 0.19 0.18 0.19 0.26 0.24
0.82 0.84 0.86 0.81 0.75 0.70 0.68 0.64 0.63 0.62 0.60 0.57 0.56 0.55 0.55 0.62 0.61 0.63 0.57 0.40 0.46 0.48 0.21 0.31 0.27 0.22 0.27 0.30 0.19 0.22 0.25 0.21 0.21 0.17 0.20 0.19 0.17 0.24 0.26 0.23 0.21 0.21 0.19 0.17 0.21 0.26 0.27
0.81 0.82 0.85 0.82 0.76 0.69 0.67 0.62 0.60 0.60 0.59 0.55 0.53 0.52 0.52 0.57 0.59 0.56 0.49 0.47 0.70 0.59 0.20 0.24 0.28 0.26 0.26 0.30 0.23 0.24 0.27 0.26 0.21 0.18 0.19 0.16 0.21 0.25 0.23 0.23 0.22 0.22 0.19 0.21 0.21 0.26 0.31
0.79 0.78 0.82 0.83 0.78 0.71 0.67 0.63 0.58 0.57 0.57 0.54 0.52 0.50 0.51 0.55 0.45 0.49 0.44 0.58 0.66 0.59 0.17 0.18 0.21 0.27 0.28 0.27 0.23 0.38 0.39 0.32 0.27 0.20 0.23 0.23 0.25 0.25 0.25 0.24 0.27 0.20 0.27 0.26 0.24 0.23 0.19
0.76 0.74 0.77 0.80 0.79 0.73 0.68 0.65 0.61 0.57 0.55 0.53 0.53 0.51 0.55 0.55 0.48 0.43 0.52 0.62 0.67 0.59 0.07 0.25 0.26 0.38 0.32 0.23 0.26 0.33 0.45 0.34 0.27 0.25 0.26 0.23 0.26 0.28 0.26 0.28 0.32 0.24 0.30 0.26 0.26 0.24 0.25
0.74 0.72 0.73 0.76 0.78 0.74 0.70 0.67 0.63 0.59 0.55 0.53 0.54 0.51 0.53 0.52 0.49 0.58 0.61 0.58 0.57 0.24 0.10 0.24 0.30 0.28 0.26 0.30 0.33 0.39 0.37 0.42 0.41 0.33 0.34 0.32 0.38 0.36 0.36 0.36 0.36 0.34 0.28 0.27 0.30 0.28 0.18
0.72 0.71 0.72 0.72 0.77 0.75 0.71 0.68 0.66 0.61 0.57 0.56 0.56 0.54 0.52 0.62 0.40 0.61 0.60 0.48 0.23 0.12 0.31 0.23 0.23 0.29 0.27 0.28 0.32 0.35 0.32 0.30 0.26 0.21 0.23 0.31 0.33 0.40 0.42 0.33 0.37 0.33 0.23 0.16 0.16 0.17 0.16
0.72 0.70 0.71 0.71 0.75 0.76 0.71 0.69 0.68 0.65 0.61 0.61 0.61 0.59 0.60 0.60 0.64 0.61 0.54 0.43 0.14 0.24 0.24 0.32 0.30 0.30 0.26 0.30 0.33 0.35 0.33 0.29 0.36 0.33 0.28 0.24 0.22 0.36 0.42 0.35 0.33 0.32 0.29 0.19 0.13 0.14 0.17
0.73 0.70 0.69 0.71 0.74 0.76 0.73 0.70 0.70 0.68 0.68 0.70 0.68 0.55 0.50 0.60 0.67 0.62 0.50 0.25 0.23 0.29 0.33 0.31 0.31 0.27 0.28 0.32 0.32 0.34 0.33 0.34 0.38 0.40 0.28 0.27 0.27 0.43 0.43 0.45 0.42 0.34 0.29 0.38 0.27 0.28 0.21
0.75 0.70 0.67 0.70 0.74 0.75 0.75 0.71 0.72 0.70 0.72 0.76 0.62 0.48 0.47 0.70 0.75 0.65 0.39 0.27 0.30 0.38 0.39 0.37 0.26 0.31 0.26 0.32 0.33 0.35 0.35 0.42 0.38 0.45 0.46 0.37 0.26 0.38 0.42 0.47 0.45 0.39 0.42 0.27 0.28 0.17 0.14
0.78 0.72 0.66 0.68 0.73 0.75 0.77 0.74 0.74 0.73 0.76 0.84 0.67 0.37 0.62 0.83 0.76 0.50 0.29 0.29 0.36 0.45 0.45 0.38 0.35 0.34 0.36 0.35 0.37 0.34 0.35 0.42 0.46 0.44 0.44 0.38 0.31 0.27 0.35 0.34 0.33 0.35 0.33 0.34 0.33 0.30 0.21
0.78 0.74 0.67 0.66 0.71 0.75 0.77 0.78 0.78 0.79 0.80 0.86 0.55 0.32 0.72 0.80 0.40 0.41 0.32 0.36 0.44 0.42 0.47 0.43 0.43 0.40 0.37 0.38 0.36 0.35 0.35 0.41 0.51 0.49 0.36 0.39 0.30 0.20 0.23 0.38 0.45 0.41 0.36 0.34 0.23 0.23 0.29
0.76 0.71 0.68 0.65 0.68 0.74 0.76 0.80 0.81 0.88 0.94 0.80 0.49 0.50 0.69 0.66 0.32 0.34 0.41 0.40 0.42 0.40 0.41 0.40 0.40 0.44 0.46 0.38 0.33 0.40 0.42 0.52 0.52 0.46 0.38 0.37 0.26 0.17 0.19 0.32 0.40 0.35 0.38 0.37 0.37 0.37 0.29
0.77 0.73 0.65 0.65 0.67 0.71 0.75 0.80 0.82 0.88 0.95 0.75 0.52 0.40 0.52 0.55 0.51 0.41 0.36 0.36 0.37 0.48 0.45 0.46 0.44 0.45 0.41 0.37 0.40 0.35 0.37 0.44 0.48 0.44 0.45 0.41 0.30 0.24 0.17 0.21 0.28 0.27 0.31 0.36 0.36 0.30 0.31
0.77 0.76 0.70 0.63 0.68 0.69 0.74 0.75 0.77 0.79 0.88 0.72 0.52 0.48 0.54 0.39 0.42 0.43 0.41 0.38 0.35 0.34 0.43 0.45 0.40 0.38 0.35 0.30 0.32 0.31 0.36 0.39 0.43 0.45 0.44 0.41 0.27 0.29 0.29 0.30 0.30 0.28 0.29 0.34 0.35 0.36 0.32
0.75 0.75 0.72 0.65 0.67 0.70 0.72 0.72 0.74 0.74 0.83 0.62 0.47 0.49 0.54 0.47 0.47 0.42 0.41 0.36 0.36 0.37 0.37 0.34 0.33 0.37 0.37 0.29 0.31 0.27 0.32 0.31 0.29 0.37 0.36 0.40 0.26 0.31 0.25 0.32 0.34 0.29 0.33 0.37 0.37 0.37 0.36
0.74 0.74 0.73 0.68 0.67 0.71 0.72 0.72 0.74 0.75 0.75 0.56 0.62 0.64 0.53 0.47 0.42 0.38 0.36 0.36 0.36 0.38 0.40 0.40 0.37 0.35 0.32 0.35 0.40 0.41 0.42 0.41 0.42 0.38 0.37 0.37 0.34 0.30 0.22 0.31 0.33 0.24 0.31 0.35 0.36 0.38 0.35
0.77 0.75 0.74 0.71 0.70 0.72 0.74 0.74 0.75 0.77 0.76 0.64 0.62 0.53 0.41 0.35 0.37 0.35 0.37 0.37 0.35 0.36 0.32 0.38 0.40 0.34 0.42 0.54 0.50 0.46 0.42 0.41 0.42 0.42 0.47 0.37 0.37 0.36 0.29 0.34 0.23 0.33 0.42 0.42 0.38 0.38 0.39
0.81 0.79 0.76 0.74 0.74 0.76 0.77 0.77 0.77 0.79 0.82 0.70 0.70 0.54 0.39 0.29 0.36 0.35 0.35 0.35 0.38 0.39 0.36 0.38 0.43 0.48 0.54 0.45 0.32 0.24 0.26 0.28 0.33 0.41 0.43 0.46 0.40 0.33 0.29 0.30 0.35 0.36 0.39 0.38 0.36 0.35 0.43
0.87 0.85 0.82 0.79 0.78 0.80 0.81 0.80 0.79 0.79 0.85 0.78 0.71 0.66 0.49 0.33 0.32 0.40 0.36 0.39 0.34 0.34 0.36 0.41 0.52 0.57 0.51 0.40 0.32 0.23 0.22 0.28 0.27 0.32 0.47 0.48 0.48 0.40 0.36 0.30 0.25 0.34 0.43 0.49 0.49 0.31 0.51
0.93 0.92 0.91 0.88 0.84 0.83 0.84 0.84 0.82 0.80 0.84 0.81 0.74 0.76 0.55 0.38 0.43 0.45 0.35 0.34 0.41 0.37 0.32 0.38 0.44 0.45 0.52 0.37 0.31 0.29 0.29 0.38 0.29 0.30 0.32 0.36 0.39 0.35 0.36 0.33 0.36 0.43 0.48 0.53 0.33 0.36 0.55
0.93 0.96 0.97 0.96 0.93 0.90 0.89 0.88 0.87 0.83 0.82 0.84 0.77 0.83 0.62 0.47 0.49 0.53 0.51 0.41 0.41 0.40 0.31 0.40 0.42 0.46 0.45 0.36 0.36 0.35 0.35 0.38 0.37 0.38 0.36 0.35 0.34 0.33 0.36 0.33 0.28 0.51 0.53 0.45 0.50 0.57 0.58
0.92 0.94 0.96 0.98 0.98 0.95 0.94 0.93 0.92 0.89 0.85 0.83 0.69 0.85 0.81 0.56 0.51 0.68 0.66 0.65 0.58 0.54 0.48 0.49 0.44 0.45 0.48 0.41 0.43 0.43 0.39 0.42 0.39 0.32 0.47 0.37 0.42 0.39 0.42 0.40 0.51 0.55 0.59 0.61 0.61 0.59 0.59

GFSGBSN_prec_pwat_009.txt.gz
Precipitable_Water
0.72 0.73 0.74 0.76 0.77 0.78 0.79 0.79 0.76 0.75 0.73 0.73 0.74 0.74 0.74 0.68 0.59 0.56 0.56 0.57 0.57 0.61 0.61 0.60 0.59 0.58 0.45 0.30 0.31 0.44 0.44 0.42 0.43 0.40 0.30 0.24 0.21 0.20 0.16 0.17 0.18 0.17 0.22 0.24 0.25 0.24 0.23
0.74 0.75 0.78 0.79 0.80 0.79 0.79 0.78 0.75 0.76 0.75 0.74 0.74 0.70 0.64 0.57 0.57 0.56 0.58 0.57 0.60 0.61 0.61 0.62 0.60 0.59 0.35 0.23 0.44 0.44 0.42 0.38 0.37 0.37 0.33 0.28 0.22 0.22 0.19 0.19 0.18 0.22 0.24 0.26 0.28 0.27 0.27
0.76 0.77 0.80 0.80 0.80 0.80 0.79 0.76 0.75 0.73 0.73 0.69 0.65 0.58 0.57 0.56 0.58 0.60 0.60 0.61 0.61 0.61 0.62 0.63 0.61 0.52 0.32 0.31 0.44 0.42 0.36 0.36 0.37 0.37 0.32 0.33 0.31 0.25 0.23 0.20 0.28 0.26 0.21 0.25 0.27 0.29 0.27
0.77 0.81 0.82 0.80 0.82 0.81 0.78 0.76 0.73 0.69 0.67 0.63 0.59 0.59 0.59 0.59 0.61 0.61 0.61 0.59 0.60 0.62 0.61 0.60 0.60 0.45 0.28 0.43 0.44 0.36 0.32 0.32 0.37 0.39 0.37 0.40 0.37 0.30 0.27 0.29 0.24 0.22 0.21 0.17 0.27 0.29 0.32
0.80 0.84 0.83 0.81 0.80 0.80 0.77 0.74 0.70 0.67 0.65 0.63 0.61 0.59 0.60 0.62 0.62 0.59 0.59 0.58 0.61 0.60 0.61 0.58 0.46 0.34 0.23 0.39 0.31 0.32 0.30 0.28 0.33 0.38 0.40 0.39 0.31 0.23 0.23 0.22 0.18 0.18 0.12 0.16 0.21 0.30 0.30
0.81 0.85 0.84 0.82 0.79 0.79 0.76 0.72 0.68 0.66 0.63 0.61 0.60 0.61 0.62 0.62 0.60 0.58 0.58 0.60 0.60 0.58 0.55 0.51 0.41 0.25 0.27 0.24 0.27 0.25 0.29 0.33 0.30 0.30 0.29 0.29 0.25 0.21 0.22 0.16 0.10 0.14 0.15 0.18 0.17 0.22 0.27
0.80 0.84 0.84 0.82 0.78 0.77 0.74 0.71 0.67 0.65 0.63 0.62 0.62 0.61 0.62 0.65 0.64 0.61 0.58 0.54 0.35 0.31 0.35 0.28 0.24 0.21 0.24 0.28 0.29 0.21 0.28 0.27 0.27 0.24 0.19 0.24 0.19 0.18 0.21 0.21 0.20 0.20 0.19 0.18 0.20 0.25 0.23
0.80 0.83 0.83 0.79 0.76 0.73 0.71 0.69 0.67 0.65 0.62 0.61 0.60 0.60 0.64 0.65 0.67 0.66 0.60 0.40 0.42 0.41 0.24 0.29 0.24 0.25 0.29 0.30 0.20 0.22 0.28 0.20 0.21 0.16 0.20 0.19 0.16 0.22 0.25 0.22 0.21 0.21 0.19 0.18 0.22 0.26 0.25
0.79 0.80 0.82 0.78 0.74 0.70 0.68 0.67 0.65 0.65 0.61 0.57 0.56 0.57 0.60 0.62 0.63 0.59 0.47 0.51 0.66 0.53 0.23 0.26 0.29 0.26 0.27 0.31 0.24 0.24 0.27 0.25 0.20 0.19 0.18 0.16 0.19 0.25 0.24 0.24 0.22 0.23 0.19 0.20 0.20 0.25 0.28
0.78 0.77 0.79 0.78 0.73 0.69 0.67 0.64 0.63 0.62 0.60 0.55 0.54 0.54 0.58 0.60 0.48 0.49 0.42 0.58 0.67 0.52 0.14 0.18 0.23 0.28 0.27 0.27 0.23 0.38 0.35 0.29 0.24 0.21 0.23 0.21 0.26 0.26 0.25 0.24 0.26 0.18 0.27 0.26 0.24 0.22 0.17
0.76 0.74 0.75 0.77 0.74 0.70 0.67 0.64 0.61 0.59 0.57 0.55 0.54 0.54 0.59 0.56 0.45 0.40 0.47 0.59 0.69 0.54 0.06 0.24 0.26 0.37 0.32 0.23 0.26 0.31 0.42 0.33 0.22 0.23 0.25 0.22 0.27 0.28 0.26 0.28 0.32 0.25 0.31 0.27 0.26 0.23 0.24
0.76 0.73 0.73 0.74 0.75 0.72 0.69 0.66 0.62 0.57 0.54 0.54 0.54 0.53 0.58 0.55 0.53 0.60 0.62 0.62 0.54 0.17 0.09 0.22 0.29 0.26 0.26 0.30 0.32 0.35 0.35 0.40 0.39 0.31 0.31 0.30 0.38 0.35 0.34 0.35 0.35 0.36 0.29 0.28 0.29 0.27 0.18
0.76 0.74 0.73 0.72 0.75 0.74 0.71 0.68 0.64 0.58 0.55 0.55 0.56 0.54 0.52 0.57 0.37 0.63 0.59 0.46 0.17 0.10 0.29 0.20 0.23 0.27 0.27 0.27 0.30 0.32 0.29 0.28 0.24 0.20 0.22 0.29 0.31 0.39 0.41 0.30 0.37 0.33 0.24 0.16 0.15 0.16 0.15
0.76 0.74 0.74 0.72 0.74 0.74 0.72 0.70 0.67 0.61 0.59 0.57 0.58 0.56 0.58 0.61 0.65 0.59 0.48 0.35 0.11 0.21 0.22 0.28 0.27 0.28 0.24 0.30 0.32 0.32 0.30 0.27 0.35 0.31 0.27 0.23 0.21 0.35 0.42 0.36 0.32 0.32 0.29 0.19 0.12 0.14 0.17
0.76 0.73 0.73 0.72 0.73 0.74 0.73 0.72 0.70 0.66 0.67 0.66 0.62 0.51 0.49 0.57 0.64 0.58 0.47 0.19 0.19 0.24 0.29 0.27 0.30 0.25 0.26 0.31 0.32 0.32 0.32 0.32 0.37 0.38 0.26 0.25 0.25 0.41 0.43 0.44 0.41 0.33 0.27 0.35 0.25 0.26 0.20
0.75 0.71 0.69 0.71 0.73 0.74 0.74 0.74 0.72 0.71 0.75 0.74 0.52 0.44 0.47 0.64 0.67 0.54 0.37 0.23 0.28 0.37 0.38 0.34 0.25 0.29 0.25 0.31 0.31 0.34 0.34 0.40 0.37 0.42 0.44 0.34 0.25 0.36 0.40 0.44 0.43 0.37 0.40 0.25 0.26 0.15 0.14
0.77 0.72 0.68 0.68 0.72 0.74 0.75 0.75 0.74 0.73 0.80 0.85 0.56 0.36 0.60 0.76 0.64 0.45 0.26 0.28 0.35 0.44 0.44 0.36 0.32 0.32 0.34 0.34 0.36 0.33 0.34 0.41 0.45 0.42 0.42 0.34 0.29 0.26 0.33 0.33 0.31 0.34 0.32 0.33 0.31 0.29 0.19
0.80 0.74 0.69 0.67 0.70 0.73 0.76 0.78 0.77 0.77 0.81 0.82 0.51 0.33 0.68 0.77 0.38 0.38 0.31 0.36 0.43 0.42 0.48 0.42 0.42 0.38 0.35 0.37 0.35 0.34 0.34 0.40 0.51 0.48 0.34 0.35 0.27 0.18 0.22 0.38 0.44 0.40 0.34 0.33 0.23 0.20 0.25
0.82 0.77 0.69 0.65 0.67 0.72 0.76 0.80 0.80 0.84 0.88 0.76 0.47 0.49 0.68 0.63 0.30 0.32 0.38 0.38 0.42 0.40 0.40 0.39 0.38 0.42 0.43 0.37 0.31 0.38 0.40 0.49 0.49 0.41 0.34 0.35 0.24 0.15 0.18 0.31 0.37 0.31 0.33 0.33 0.33 0.33 0.24
0.82 0.79 0.73 0.65 0.66 0.70 0.74 0.81 0.82 0.90 0.92 0.71 0.49 0.38 0.48 0.50 0.46 0.37 0.35 0.36 0.35 0.46 0.42 0.44 0.43 0.44 0.38 0.35 0.39 0.34 0.36 0.43 0.47 0.44 0.46 0.42 0.29 0.22 0.16 0.19 0.27 0.24 0.29 0.34 0.34 0.28 0.29
0.81 0.77 0.72 0.68 0.66 0.68 0.72 0.76 0.83 0.88 0.91 0.69 0.53 0.44 0.47 0.35 0.38 0.41 0.40 0.37 0.35 0.35 0.44 0.45 0.39 0.37 0.34 0.29 0.30 0.29 0.33 0.34 0.37 0.40 0.40 0.37 0.23 0.27 0.28 0.29 0.30 0.29 0.29 0.31 0.31 0.34 0.31
0.81 0.79 0.74 0.67 0.68 0.68 0.70 0.71 0.75 0.81 0.87 0.64 0.50 0.49 0.52 0.47 0.47 0.42 0.38 0.35 0.34 0.36 0.37 0.35 0.33 0.37 0.34 0.27 0.26 0.22 0.26 0.25 0.23 0.33 0.34 0.39 0.25 0.29 0.26 0.32 0.32 0.28 0.30 0.35 0.37 0.38 0.38
0.82 0.79 0.76 0.72 0.67 0.69 0.69 0.70 0.73 0.78 0.77 0.60 0.66 0.66 0.53 0.46 0.42 0.39 0.37 0.38 0.37 0.39 0.40 0.40 0.37 0.33 0.29 0.31 0.37 0.37 0.38 0.37 0.37 0.34 0.35 0.36 0.32 0.29 0.22 0.31 0.31 0.23 0.30 0.34 0.37 0.39 0.38
0.81 0.80 0.76 0.74 0.70 0.68 0.71 0.71 0.71 0.79 0.76 0.63 0.61 0.57 0.48 0.38 0.41 0.39 0.41 0.40 0.37 0.37 0.31 0.38 0.38 0.32 0.39 0.51 0.47 0.41 0.37 0.36 0.38 0.41 0.46 0.36 0.36 0.35 0.28 0.31 0.20 0.30 0.41 0.42 0.39 0.40 0.42
0.80 0.79 0.77 0.74 0.73 0.69 0.71 0.73 0.73 0.79 0.81 0.67 0.65 0.52 0.43 0.36 0.42 0.39 0.38 0.37 0.39 0.40 0.36 0.36 0.41 0.46 0.52 0.42 0.29 0.22 0.22 0.24 0.30 0.38 0.41 0.44 0.39 0.32 0.28 0.28 0.32 0.34 0.38 0.38 0.37 0.36 0.45
0.83 0.80 0.78 0.77 0.75 0.72 0.72 0.75 0.76 0.77 0.84 0.76 0.68 0.63 0.45 0.32 0.33 0.40 0.34 0.36 0.32 0.32 0.35 0.41 0.52 0.55 0.49 0.37 0.29 0.18 0.17 0.24 0.24 0.29 0.43 0.44 0.45 0.37 0.34 0.28 0.23 0.33 0.43 0.50 0.49 0.32 0.52
0.86 0.83 0.81 0.79 0.78 0.77 0.77 0.78 0.78 0.78 0.85 0.79 0.72 0.73 0.51 0.35 0.42 0.44 0.35 0.35 0.42 0.38 0.34 0.40 0.44 0.44 0.50 0.36 0.28 0.25 0.24 0.33 0.25 0.26 0.29 0.32 0.36 0.33 0.33 0.31 0.33 0.43 0.48 0.53 0.33 0.37 0.58
0.90 0.88 0.86 0.85 0.82 0.81 0.80 0.80 0.80 0.79 0.82 0.81 0.73 0.78 0.58 0.44 0.47 0.52 0.49 0.41 0.42 0.40 0.31 0.40 0.40 0.42 0.41 0.32 0.30 0.31 0.31 0.33 0.32 0.35 0.32 0.31 0.32 0.32 0.34 0.30 0.26 0.50 0.51 0.41 0.50 0.61 0.59
0.93 0.93 0.92 0.92 0.91 0.88 0.86 0.84 0.84 0.82 0.80 0.82 0.66 0.81 0.77 0.54 0.51 0.68 0.66 0.63 0.56 0.51 0.43 0.45 0.40 0.40 0.43 0.35 0.38 0.39 0.34 0.38 0.35 0.29 0.42 0.32 0.40 0.38 0.41 0.38 0.50 0.53 0.54 0.60 0.65 0.62 0.62

GFSGBSN_prec_pwat_015.txt.gz
Precipitable_Water
0.77 0.76 0.76 0.75 0.77 0.77 0.77 0.80 0.80 0.78 0.76 0.74 0.70 0.68 0.68 0.66 0.67 0.66 0.65 0.63 0.62 0.62 0.65 0.67 0.63 0.64 0.56 0.47 0.38 0.45 0.44 0.42 0.44 0.36 0.34 0.33 0.30 0.24 0.18 0.17 0.16 0.16 0.16 0.15 0.14 0.15 0.18
0.76 0.76 0.76 0.77 0.78 0.78 0.80 0.80 0.79 0.77 0.75 0.72 0.69 0.69 0.67 0.72 0.68 0.67 0.64 0.61 0.60 0.64 0.69 0.68 0.63 0.62 0.48 0.37 0.43 0.43 0.43 0.40 0.42 0.38 0.31 0.31 0.28 0.24 0.18 0.19 0.24 0.23 0.23 0.24 0.24 0.23 0.22
0.77 0.76 0.76 0.78 0.79 0.81 0.80 0.79 0.79 0.79 0.74 0.72 0.72 0.69 0.75 0.70 0.63 0.60 0.61 0.60 0.64 0.67 0.67 0.64 0.60 0.51 0.45 0.39 0.41 0.40 0.38 0.37 0.37 0.41 0.33 0.31 0.28 0.23 0.24 0.21 0.26 0.25 0.23 0.27 0.27 0.28 0.26
0.76 0.75 0.78 0.80 0.80 0.82 0.81 0.79 0.76 0.75 0.71 0.73 0.70 0.67 0.63 0.57 0.60 0.60 0.60 0.64 0.67 0.66 0.65 0.62 0.58 0.48 0.40 0.41 0.44 0.34 0.33 0.32 0.36 0.39 0.37 0.33 0.30 0.34 0.33 0.31 0.25 0.24 0.27 0.25 0.28 0.28 0.31
0.75 0.76 0.79 0.81 0.82 0.82 0.81 0.78 0.74 0.72 0.68 0.65 0.63 0.58 0.58 0.59 0.59 0.61 0.65 0.66 0.66 0.64 0.62 0.61 0.49 0.50 0.30 0.38 0.33 0.34 0.33 0.32 0.36 0.41 0.40 0.38 0.38 0.32 0.29 0.26 0.24 0.24 0.25 0.22 0.26 0.28 0.30
0.76 0.76 0.80 0.83 0.83 0.82 0.82 0.77 0.72 0.69 0.65 0.62 0.61 0.60 0.59 0.58 0.61 0.64 0.64 0.66 0.64 0.61 0.56 0.55 0.50 0.37 0.29 0.29 0.31 0.30 0.34 0.36 0.38 0.39 0.35 0.33 0.31 0.28 0.26 0.25 0.23 0.21 0.17 0.18 0.20 0.28 0.23
0.76 0.77 0.81 0.84 0.82 0.82 0.80 0.75 0.71 0.67 0.65 0.64 0.62 0.61 0.61 0.62 0.62 0.62 0.62 0.55 0.42 0.39 0.42 0.38 0.28 0.32 0.25 0.28 0.27 0.30 0.33 0.35 0.35 0.35 0.33 0.29 0.30 0.28 0.27 0.24 0.24 0.19 0.18 0.20 0.24 0.27 0.21
0.76 0.78 0.82 0.84 0.82 0.81 0.77 0.73 0.71 0.66 0.64 0.63 0.64 0.64 0.62 0.62 0.61 0.64 0.66 0.61 0.56 0.46 0.27 0.34 0.31 0.30 0.29 0.32 0.24 0.29 0.35 0.31 0.29 0.28 0.26 0.21 0.26 0.25 0.25 0.24 0.21 0.22 0.21 0.22 0.25 0.25 0.23
0.77 0.78 0.81 0.83 0.81 0.78 0.75 0.73 0.68 0.65 0.63 0.66 0.69 0.68 0.66 0.65 0.65 0.63 0.64 0.60 0.64 0.55 0.27 0.28 0.32 0.29 0.28 0.33 0.28 0.26 0.31 0.27 0.25 0.21 0.19 0.25 0.26 0.23 0.24 0.25 0.22 0.26 0.22 0.26 0.23 0.27 0.27
0.79 0.77 0.81 0.82 0.78 0.75 0.72 0.69 0.66 0.64 0.62 0.66 0.65 0.65 0.67 0.66 0.58 0.62 0.55 0.60 0.64 0.61 0.24 0.19 0.25 0.27 0.29 0.31 0.23 0.31 0.31 0.28 0.22 0.22 0.23 0.24 0.26 0.25 0.25 0.25 0.25 0.24 0.29 0.26 0.25 0.23 0.24
0.79 0.77 0.80 0.80 0.76 0.71 0.68 0.67 0.65 0.63 0.61 0.62 0.62 0.63 0.65 0.67 0.61 0.49 0.59 0.65 0.64 0.60 0.17 0.24 0.26 0.36 0.29 0.29 0.30 0.29 0.35 0.30 0.25 0.24 0.25 0.27 0.28 0.29 0.29 0.29 0.30 0.29 0.31 0.28 0.28 0.25 0.25
0.78 0.78 0.79 0.79 0.75 0.70 0.66 0.65 0.64 0.61 0.59 0.59 0.62 0.65 0.62 0.61 0.68 0.67 0.64 0.65 0.52 0.32 0.15 0.21 0.27 0.29 0.27 0.28 0.29 0.34 0.33 0.35 0.35 0.27 0.30 0.29 0.35 0.35 0.33 0.33 0.32 0.34 0.32 0.31 0.31 0.31 0.22
0.78 0.78 0.77 0.78 0.74 0.70 0.67 0.63 0.61 0.59 0.57 0.59 0.59 0.66 0.65 0.66 0.53 0.68 0.65 0.50 0.22 0.22 0.27 0.21 0.23 0.29 0.30 0.27 0.29 0.33 0.31 0.30 0.31 0.27 0.26 0.30 0.32 0.38 0.37 0.34 0.40 0.36 0.32 0.27 0.27 0.26 0.27
0.79 0.79 0.77 0.77 0.75 0.72 0.69 0.64 0.58 0.57 0.58 0.60 0.59 0.63 0.66 0.66 0.69 0.68 0.52 0.36 0.23 0.26 0.23 0.29 0.28 0.29 0.28 0.30 0.30 0.31 0.32 0.28 0.32 0.30 0.27 0.27 0.28 0.34 0.38 0.35 0.32 0.33 0.32 0.26 0.18 0.22 0.24
0.80 0.79 0.76 0.75 0.75 0.73 0.72 0.65 0.61 0.59 0.58 0.59 0.60 0.62 0.61 0.64 0.69 0.63 0.43 0.29 0.24 0.24 0.28 0.25 0.27 0.26 0.25 0.28 0.31 0.32 0.32 0.29 0.31 0.36 0.32 0.27 0.29 0.38 0.38 0.39 0.35 0.34 0.29 0.30 0.26 0.28 0.20
0.80 0.78 0.74 0.74 0.74 0.75 0.74 0.68 0.67 0.62 0.60 0.58 0.52 0.48 0.52 0.65 0.68 0.51 0.47 0.33 0.28 0.30 0.30 0.29 0.26 0.31 0.27 0.28 0.29 0.32 0.32 0.37 0.34 0.36 0.39 0.31 0.29 0.33 0.35 0.37 0.41 0.34 0.34 0.30 0.30 0.18 0.15
0.80 0.77 0.73 0.72 0.73 0.76 0.77 0.72 0.71 0.66 0.62 0.63 0.51 0.39 0.57 0.68 0.57 0.45 0.33 0.29 0.28 0.34 0.37 0.35 0.34 0.29 0.33 0.30 0.34 0.33 0.33 0.36 0.40 0.37 0.38 0.31 0.27 0.29 0.30 0.33 0.32 0.38 0.36 0.33 0.28 0.28 0.22
0.80 0.77 0.72 0.71 0.72 0.76 0.78 0.75 0.75 0.73 0.68 0.63 0.50 0.40 0.56 0.62 0.34 0.46 0.36 0.33 0.38 0.36 0.42 0.40 0.42 0.37 0.36 0.37 0.35 0.34 0.33 0.39 0.45 0.41 0.31 0.30 0.27 0.22 0.24 0.33 0.37 0.36 0.34 0.33 0.25 0.24 0.29
0.79 0.77 0.72 0.70 0.71 0.75 0.79 0.79 0.78 0.79 0.77 0.68 0.47 0.54 0.59 0.58 0.36 0.37 0.40 0.36 0.40 0.38 0.40 0.41 0.39 0.41 0.43 0.38 0.31 0.36 0.38 0.46 0.45 0.38 0.34 0.32 0.27 0.19 0.23 0.35 0.40 0.32 0.36 0.33 0.34 0.31 0.23
0.79 0.78 0.73 0.70 0.70 0.74 0.78 0.81 0.80 0.82 0.82 0.72 0.54 0.39 0.43 0.48 0.53 0.38 0.34 0.32 0.34 0.46 0.44 0.45 0.41 0.42 0.39 0.36 0.39 0.35 0.36 0.40 0.41 0.38 0.35 0.33 0.27 0.21 0.17 0.21 0.26 0.25 0.28 0.31 0.32 0.29 0.30
0.79 0.79 0.75 0.71 0.70 0.73 0.77 0.82 0.82 0.83 0.84 0.71 0.59 0.49 0.49 0.35 0.38 0.42 0.40 0.38 0.35 0.35 0.45 0.45 0.39 0.40 0.39 0.32 0.35 0.34 0.36 0.33 0.35 0.34 0.34 0.33 0.22 0.27 0.26 0.26 0.26 0.27 0.28 0.30 0.29 0.31 0.29
0.78 0.79 0.77 0.73 0.70 0.71 0.76 0.81 0.85 0.85 0.82 0.66 0.49 0.47 0.50 0.47 0.47 0.42 0.40 0.36 0.36 0.40 0.40 0.36 0.38 0.41 0.40 0.34 0.31 0.29 0.30 0.27 0.26 0.34 0.32 0.34 0.25 0.27 0.23 0.28 0.27 0.26 0.29 0.30 0.32 0.34 0.35
0.80 0.80 0.79 0.76 0.71 0.71 0.73 0.78 0.86 0.85 0.82 0.66 0.62 0.62 0.55 0.42 0.42 0.40 0.38 0.40 0.41 0.45 0.46 0.45 0.43 0.38 0.36 0.38 0.41 0.40 0.40 0.37 0.34 0.32 0.31 0.31 0.29 0.25 0.20 0.27 0.26 0.25 0.30 0.31 0.34 0.38 0.40
0.84 0.83 0.82 0.79 0.75 0.71 0.71 0.72 0.82 0.85 0.85 0.76 0.69 0.63 0.50 0.36 0.42 0.42 0.42 0.45 0.45 0.45 0.40 0.46 0.46 0.41 0.47 0.48 0.42 0.39 0.38 0.36 0.37 0.37 0.40 0.32 0.30 0.30 0.23 0.26 0.18 0.34 0.40 0.38 0.36 0.39 0.41
0.86 0.85 0.84 0.82 0.78 0.73 0.71 0.70 0.75 0.79 0.78 0.72 0.68 0.64 0.53 0.39 0.48 0.46 0.46 0.47 0.49 0.48 0.45 0.45 0.47 0.48 0.50 0.42 0.29 0.20 0.21 0.22 0.28 0.35 0.36 0.42 0.36 0.26 0.22 0.23 0.27 0.33 0.39 0.37 0.34 0.34 0.44
0.86 0.86 0.85 0.81 0.77 0.75 0.72 0.72 0.71 0.79 0.78 0.72 0.66 0.72 0.62 0.46 0.47 0.54 0.51 0.52 0.46 0.45 0.44 0.43 0.51 0.54 0.49 0.38 0.26 0.15 0.16 0.21 0.23 0.28 0.38 0.39 0.42 0.32 0.28 0.23 0.20 0.35 0.45 0.49 0.48 0.33 0.56
0.87 0.86 0.86 0.83 0.81 0.79 0.76 0.71 0.71 0.77 0.79 0.79 0.68 0.71 0.61 0.49 0.59 0.58 0.52 0.50 0.56 0.48 0.41 0.43 0.43 0.43 0.49 0.32 0.22 0.20 0.21 0.27 0.20 0.20 0.24 0.27 0.31 0.27 0.28 0.27 0.30 0.42 0.49 0.51 0.32 0.39 0.57
0.86 0.85 0.86 0.85 0.83 0.81 0.78 0.76 0.72 0.75 0.78 0.80 0.69 0.73 0.61 0.46 0.51 0.61 0.60 0.52 0.49 0.47 0.38 0.46 0.41 0.43 0.41 0.27 0.26 0.25 0.25 0.28 0.26 0.28 0.27 0.25 0.26 0.26 0.32 0.28 0.26 0.50 0.48 0.42 0.50 0.61 0.61
0.84 0.83 0.83 0.83 0.84 0.82 0.79 0.77 0.75 0.73 0.77 0.80 0.66 0.73 0.75 0.57 0.54 0.67 0.65 0.66 0.62 0.61 0.52 0.50 0.44 0.41 0.43 0.36 0.34 0.34 0.25 0.31 0.28 0.22 0.34 0.25 0.32 0.33 0.38 0.36 0.48 0.55 0.56 0.65 0.65 0.63 0.61

GFSGBSN_prec_pwat_018.txt.gz
Precipitable_Water
0.72 0.75 0.78 0.77 0.74 0.75 0.74 0.73 0.74 0.76 0.75 0.74 0.73 0.71 0.70 0.68 0.66 0.63 0.63 0.62 0.61 0.63 0.65 0.62 0.61 0.64 0.66 0.58 0.46 0.42 0.42 0.44 0.44 0.45 0.41 0.37 0.35 0.30 0.25 0.24 0.20 0.19 0.18 0.15 0.13 0.14 0.18
0.72 0.80 0.80 0.75 0.76 0.75 0.75 0.75 0.76 0.76 0.75 0.75 0.73 0.70 0.67 0.65 0.65 0.65 0.63 0.62 0.63 0.64 0.63 0.63 0.63 0.65 0.56 0.51 0.49 0.45 0.38 0.39 0.43 0.36 0.35 0.36 0.35 0.31 0.20 0.19 0.23 0.19 0.17 0.17 0.17 0.17 0.16
0.77 0.80 0.76 0.76 0.76 0.74 0.76 0.76 0.77 0.76 0.76 0.73 0.72 0.67 0.65 0.68 0.66 0.65 0.64 0.64 0.65 0.64 0.67 0.65 0.63 0.60 0.59 0.52 0.43 0.43 0.39 0.40 0.42 0.48 0.40 0.37 0.35 0.27 0.26 0.24 0.29 0.24 0.22 0.23 0.22 0.23 0.21
0.79 0.77 0.76 0.77 0.74 0.76 0.78 0.77 0.78 0.75 0.74 0.71 0.69 0.70 0.71 0.76 0.66 0.63 0.63 0.64 0.64 0.68 0.67 0.64 0.59 0.49 0.52 0.53 0.46 0.36 0.36 0.33 0.37 0.44 0.42 0.34 0.33 0.38 0.37 0.31 0.22 0.22 0.27 0.26 0.30 0.29 0.28
0.79 0.77 0.76 0.75 0.75 0.78 0.78 0.78 0.75 0.74 0.70 0.70 0.69 0.69 0.71 0.62 0.61 0.62 0.64 0.66 0.68 0.66 0.64 0.61 0.47 0.49 0.47 0.35 0.28 0.34 0.32 0.33 0.34 0.37 0.36 0.31 0.34 0.29 0.27 0.22 0.23 0.25 0.25 0.28 0.31 0.30 0.32
0.80 0.76 0.75 0.74 0.78 0.78 0.78 0.79 0.74 0.76 0.69 0.71 0.64 0.61 0.58 0.60 0.60 0.63 0.67 0.68 0.67 0.62 0.58 0.57 0.57 0.52 0.37 0.30 0.31 0.29 0.32 0.36 0.36 0.37 0.31 0.31 0.33 0.28 0.27 0.30 0.28 0.29 0.22 0.23 0.21 0.29 0.22
0.79 0.76 0.73 0.75 0.79 0.79 0.79 0.78 0.73 0.70 0.66 0.64 0.64 0.62 0.61 0.61 0.65 0.66 0.63 0.56 0.42 0.40 0.50 0.42 0.32 0.37 0.28 0.27 0.25 0.30 0.32 0.33 0.39 0.37 0.34 0.30 0.31 0.31 0.30 0.28 0.28 0.27 0.21 0.20 0.29 0.30 0.23
0.76 0.75 0.72 0.77 0.81 0.80 0.79 0.77 0.72 0.69 0.68 0.66 0.65 0.63 0.64 0.66 0.65 0.66 0.73 0.69 0.63 0.50 0.35 0.39 0.35 0.34 0.31 0.34 0.25 0.29 0.33 0.33 0.30 0.31 0.34 0.23 0.27 0.35 0.33 0.22 0.22 0.24 0.22 0.24 0.28 0.28 0.21
0.76 0.74 0.73 0.79 0.81 0.80 0.78 0.74 0.73 0.70 0.67 0.65 0.66 0.66 0.64 0.65 0.66 0.66 0.76 0.80 0.75 0.60 0.29 0.29 0.35 0.28 0.30 0.37 0.29 0.26 0.33 0.31 0.29 0.32 0.23 0.29 0.32 0.22 0.17 0.23 0.22 0.26 0.23 0.30 0.26 0.28 0.26
0.76 0.73 0.74 0.80 0.80 0.79 0.76 0.73 0.71 0.67 0.66 0.68 0.68 0.68 0.69 0.67 0.58 0.64 0.70 0.64 0.70 0.62 0.23 0.17 0.24 0.24 0.27 0.32 0.23 0.31 0.34 0.32 0.26 0.24 0.23 0.28 0.31 0.22 0.24 0.26 0.24 0.24 0.33 0.29 0.23 0.23 0.23
0.75 0.73 0.75 0.79 0.79 0.77 0.73 0.72 0.67 0.65 0.66 0.67 0.66 0.67 0.70 0.69 0.78 0.61 0.68 0.65 0.71 0.66 0.18 0.25 0.25 0.36 0.28 0.32 0.30 0.26 0.27 0.25 0.28 0.27 0.26 0.30 0.27 0.30 0.30 0.32 0.29 0.29 0.34 0.25 0.25 0.24 0.24
0.76 0.74 0.76 0.78 0.78 0.74 0.73 0.70 0.66 0.64 0.65 0.66 0.69 0.69 0.68 0.74 0.81 0.78 0.72 0.64 0.51 0.47 0.22 0.21 0.26 0.28 0.25 0.28 0.31 0.32 0.27 0.35 0.34 0.26 0.30 0.32 0.34 0.33 0.31 0.30 0.29 0.30 0.32 0.32 0.31 0.29 0.24
0.76 0.75 0.77 0.78 0.77 0.73 0.70 0.69 0.65 0.63 0.63 0.65 0.69 0.69 0.72 0.84 0.68 0.74 0.66 0.45 0.25 0.31 0.28 0.22 0.23 0.29 0.29 0.26 0.28 0.31 0.30 0.28 0.33 0.26 0.26 0.30 0.33 0.36 0.33 0.34 0.42 0.37 0.34 0.27 0.32 0.29 0.26
0.76 0.76 0.77 0.77 0.76 0.72 0.69 0.66 0.63 0.62 0.63 0.63 0.62 0.68 0.70 0.78 0.88 0.71 0.54 0.39 0.26 0.30 0.25 0.28 0.28 0.31 0.28 0.30 0.29 0.31 0.31 0.27 0.33 0.35 0.33 0.30 0.32 0.37 0.37 0.34 0.32 0.34 0.32 0.26 0.19 0.25 0.29
0.78 0.76 0.77 0.76 0.75 0.73 0.71 0.65 0.61 0.61 0.63 0.62 0.62 0.64 0.65 0.70 0.74 0.66 0.47 0.30 0.31 0.26 0.31 0.27 0.29 0.27 0.28 0.29 0.31 0.33 0.35 0.31 0.30 0.35 0.33 0.28 0.32 0.36 0.35 0.35 0.33 0.35 0.33 0.27 0.25 0.30 0.19
0.79 0.76 0.76 0.74 0.75 0.74 0.72 0.67 0.62 0.61 0.61 0.61 0.52 0.49 0.55 0.69 0.69 0.52 0.45 0.39 0.40 0.36 0.31 0.30 0.25 0.32 0.29 0.29 0.30 0.34 0.33 0.35 0.32 0.35 0.39 0.31 0.31 0.34 0.31 0.40 0.46 0.31 0.32 0.29 0.36 0.21 0.18
0.80 0.77 0.75 0.72 0.74 0.76 0.74 0.70 0.68 0.64 0.60 0.60 0.60 0.41 0.71 0.65 0.59 0.42 0.35 0.43 0.36 0.33 0.35 0.30 0.34 0.30 0.37 0.32 0.36 0.36 0.36 0.36 0.39 0.34 0.37 0.32 0.30 0.29 0.35 0.31 0.28 0.36 0.36 0.33 0.29 0.28 0.22
0.80 0.79 0.74 0.71 0.74 0.77 0.76 0.74 0.73 0.65 0.62 0.62 0.49 0.40 0.77 0.57 0.31 0.36 0.42 0.42 0.38 0.31 0.38 0.42 0.42 0.37 0.38 0.36 0.37 0.37 0.34 0.40 0.42 0.40 0.32 0.25 0.26 0.22 0.25 0.29 0.32 0.31 0.31 0.31 0.24 0.21 0.28
0.81 0.80 0.74 0.70 0.73 0.78 0.78 0.76 0.77 0.68 0.63 0.61 0.48 0.69 0.69 0.54 0.34 0.41 0.49 0.40 0.38 0.34 0.36 0.39 0.40 0.43 0.46 0.41 0.35 0.38 0.40 0.45 0.44 0.39 0.33 0.28 0.26 0.21 0.25 0.37 0.38 0.29 0.33 0.32 0.34 0.33 0.24
0.82 0.80 0.74 0.69 0.71 0.77 0.80 0.78 0.79 0.73 0.72 0.78 0.69 0.48 0.41 0.42 0.66 0.43 0.39 0.34 0.34 0.44 0.42 0.46 0.44 0.44 0.41 0.39 0.42 0.36 0.38 0.43 0.42 0.33 0.27 0.33 0.26 0.20 0.17 0.21 0.26 0.23 0.25 0.28 0.29 0.26 0.28
0.82 0.80 0.75 0.70 0.70 0.76 0.80 0.80 0.80 0.77 0.79 0.83 0.76 0.50 0.38 0.26 0.41 0.45 0.42 0.38 0.35 0.33 0.43 0.46 0.40 0.39 0.39 0.34 0.36 0.37 0.41 0.35 0.36 0.29 0.30 0.31 0.19 0.24 0.24 0.24 0.25 0.24 0.24 0.27 0.27 0.30 0.27
0.82 0.81 0.77 0.71 0.71 0.74 0.79 0.82 0.82 0.80 0.81 0.67 0.66 0.59 0.48 0.51 0.40 0.43 0.44 0.38 0.37 0.38 0.41 0.39 0.39 0.42 0.44 0.38 0.36 0.36 0.38 0.32 0.29 0.31 0.31 0.32 0.22 0.23 0.17 0.26 0.26 0.21 0.25 0.28 0.30 0.32 0.32
0.82 0.81 0.79 0.75 0.71 0.73 0.77 0.81 0.85 0.84 0.86 0.70 0.74 0.70 0.57 0.44 0.46 0.42 0.42 0.39 0.40 0.44 0.46 0.48 0.46 0.45 0.41 0.42 0.46 0.47 0.43 0.38 0.34 0.34 0.30 0.29 0.25 0.21 0.16 0.23 0.21 0.24 0.31 0.31 0.33 0.37 0.37
0.83 0.81 0.82 0.79 0.74 0.72 0.74 0.79 0.86 0.84 0.89 0.91 0.76 0.66 0.56 0.39 0.42 0.41 0.44 0.44 0.44 0.46 0.41 0.49 0.51 0.46 0.51 0.55 0.48 0.42 0.37 0.36 0.37 0.36 0.39 0.27 0.26 0.26 0.18 0.22 0.13 0.28 0.33 0.35 0.35 0.38 0.41
0.84 0.82 0.83 0.82 0.78 0.73 0.71 0.73 0.82 0.85 0.85 0.78 0.73 0.72 0.57 0.38 0.45 0.46 0.44 0.44 0.51 0.51 0.51 0.51 0.53 0.56 0.54 0.47 0.31 0.19 0.20 0.20 0.28 0.34 0.34 0.41 0.30 0.21 0.19 0.19 0.21 0.27 0.36 0.35 0.33 0.33 0.44
0.86 0.85 0.84 0.84 0.81 0.76 0.71 0.70 0.74 0.79 0.83 0.79 0.71 0.83 0.67 0.44 0.45 0.52 0.47 0.52 0.46 0.48 0.51 0.53 0.61 0.61 0.52 0.42 0.26 0.14 0.16 0.22 0.23 0.26 0.37 0.39 0.41 0.27 0.24 0.17 0.14 0.26 0.42 0.47 0.45 0.30 0.56
0.88 0.87 0.86 0.86 0.84 0.81 0.76 0.71 0.71 0.76 0.80 0.81 0.68 0.79 0.72 0.56 0.59 0.61 0.54 0.52 0.60 0.56 0.50 0.51 0.48 0.44 0.52 0.31 0.20 0.18 0.20 0.25 0.20 0.21 0.23 0.24 0.28 0.23 0.24 0.21 0.24 0.35 0.44 0.48 0.28 0.36 0.58
0.90 0.88 0.88 0.87 0.85 0.81 0.77 0.73 0.70 0.74 0.77 0.83 0.71 0.75 0.70 0.56 0.61 0.70 0.70 0.65 0.62 0.60 0.51 0.55 0.44 0.44 0.40 0.27 0.24 0.23 0.23 0.28 0.26 0.29 0.25 0.21 0.22 0.22 0.26 0.22 0.18 0.45 0.46 0.37 0.48 0.57 0.63
0.90 0.88 0.87 0.87 0.85 0.82 0.80 0.79 0.75 0.71 0.75 0.83 0.68 0.75 0.78 0.60 0.57 0.76 0.79 0.82 0.74 0.71 0.62 0.56 0.45 0.44 0.43 0.33 0.33 0.33 0.23 0.32 0.28 0.20 0.33 0.26 0.30 0.29 0.30 0.27 0.43 0.51 0.52 0.60 0.62 0.61 0.64

GFSGBSN_prec_pwat_021.txt.gz
Precipitable_Water
0.69 0.68 0.70 0.74 0.75 0.78 0.78 0.75 0.75 0.72 0.72 0.72 0.74 0.72 0.71 0.69 0.66 0.62 0.59 0.59 0.62 0.60 0.65 0.66 0.63 0.66 0.71 0.52 0.48 0.44 0.45 0.46 0.45 0.44 0.43 0.44 0.39 0.35 0.28 0.27 0.24 0.21 0.20 0.22 0.21 0.22 0.21
0.67 0.69 0.72 0.74 0.77 0.81 0.77 0.75 0.73 0.71 0.72 0.74 0.75 0.74 0.70 0.66 0.65 0.63 0.59 0.61 0.62 0.65 0.67 0.65 0.63 0.77 0.62 0.46 0.56 0.44 0.41 0.48 0.48 0.48 0.49 0.46 0.39 0.35 0.25 0.25 0.20 0.18 0.15 0.13 0.10 0.13 0.15
0.68 0.71 0.75 0.75 0.80 0.78 0.77 0.75 0.72 0.73 0.75 0.75 0.74 0.72 0.68 0.63 0.62 0.63 0.61 0.62 0.65 0.67 0.65 0.64 0.66 0.70 0.58 0.51 0.55 0.45 0.42 0.44 0.48 0.47 0.43 0.40 0.38 0.30 0.29 0.25 0.26 0.21 0.16 0.18 0.18 0.18 0.15
0.68 0.70 0.75 0.77 0.79 0.77 0.76 0.74 0.73 0.74 0.74 0.73 0.73 0.69 0.64 0.61 0.63 0.63 0.62 0.64 0.67 0.66 0.67 0.64 0.66 0.67 0.47 0.59 0.46 0.40 0.36 0.35 0.41 0.46 0.43 0.40 0.36 0.32 0.34 0.26 0.23 0.22 0.26 0.22 0.29 0.32 0.25
0.67 0.72 0.76 0.77 0.76 0.76 0.76 0.75 0.74 0.73 0.70 0.69 0.67 0.64 0.64 0.66 0.63 0.64 0.66 0.67 0.67 0.70 0.68 0.64 0.53 0.52 0.44 0.43 0.30 0.36 0.32 0.31 0.33 0.37 0.32 0.31 0.34 0.30 0.33 0.25 0.26 0.29 0.27 0.28 0.31 0.33 0.29
0.70 0.77 0.76 0.74 0.77 0.76 0.76 0.74 0.74 0.74 0.72 0.70 0.67 0.68 0.69 0.65 0.64 0.70 0.67 0.69 0.71 0.66 0.62 0.60 0.57 0.51 0.46 0.33 0.31 0.29 0.32 0.33 0.30 0.33 0.28 0.29 0.36 0.32 0.32 0.29 0.24 0.27 0.25 0.29 0.28 0.29 0.28
0.72 0.76 0.74 0.74 0.76 0.77 0.76 0.75 0.74 0.74 0.70 0.73 0.66 0.64 0.61 0.62 0.65 0.67 0.65 0.59 0.44 0.40 0.45 0.33 0.43 0.39 0.31 0.31 0.29 0.25 0.29 0.32 0.36 0.33 0.32 0.37 0.32 0.29 0.29 0.31 0.32 0.29 0.26 0.26 0.29 0.31 0.27
0.75 0.78 0.74 0.73 0.75 0.77 0.76 0.75 0.73 0.72 0.68 0.67 0.67 0.63 0.61 0.63 0.67 0.68 0.65 0.55 0.62 0.63 0.36 0.43 0.45 0.39 0.33 0.35 0.26 0.30 0.32 0.30 0.33 0.30 0.38 0.35 0.28 0.37 0.35 0.30 0.24 0.27 0.25 0.28 0.29 0.31 0.27
0.77 0.77 0.72 0.72 0.76 0.78 0.76 0.76 0.73 0.71 0.68 0.67 0.64 0.62 0.64 0.67 0.68 0.70 0.73 0.81 0.87 0.73 0.36 0.33 0.36 0.29 0.33 0.37 0.28 0.24 0.35 0.35 0.34 0.32 0.30 0.26 0.31 0.30 0.23 0.29 0.21 0.27 0.26 0.26 0.25 0.28 0.24
0.78 0.76 0.72 0.72 0.77 0.78 0.76 0.74 0.72 0.71 0.68 0.67 0.65 0.67 0.66 0.67 0.61 0.69 0.67 0.82 0.84 0.71 0.24 0.23 0.25 0.22 0.32 0.33 0.25 0.31 0.35 0.34 0.30 0.28 0.29 0.29 0.33 0.29 0.22 0.22 0.23 0.23 0.33 0.30 0.25 0.19 0.15
0.77 0.75 0.70 0.72 0.77 0.78 0.77 0.74 0.72 0.71 0.69 0.67 0.68 0.71 0.70 0.69 0.74 0.69 0.79 0.79 0.73 0.64 0.12 0.24 0.25 0.31 0.29 0.32 0.30 0.22 0.31 0.31 0.28 0.27 0.27 0.25 0.27 0.28 0.27 0.29 0.31 0.24 0.30 0.24 0.23 0.20 0.22
0.79 0.74 0.69 0.73 0.77 0.78 0.76 0.73 0.72 0.70 0.68 0.68 0.70 0.71 0.70 0.75 0.85 0.86 0.88 0.73 0.59 0.42 0.17 0.23 0.24 0.22 0.20 0.29 0.32 0.31 0.21 0.35 0.33 0.28 0.30 0.32 0.38 0.31 0.31 0.29 0.31 0.32 0.31 0.31 0.34 0.30 0.20
0.81 0.72 0.70 0.74 0.77 0.77 0.74 0.72 0.70 0.67 0.68 0.69 0.72 0.69 0.72 0.88 0.71 0.86 0.73 0.50 0.39 0.31 0.27 0.19 0.23 0.27 0.27 0.25 0.26 0.27 0.22 0.28 0.29 0.23 0.24 0.30 0.32 0.35 0.34 0.31 0.39 0.34 0.30 0.24 0.24 0.30 0.29
0.80 0.71 0.71 0.75 0.77 0.75 0.72 0.70 0.68 0.66 0.66 0.69 0.70 0.71 0.78 0.87 0.92 0.75 0.55 0.33 0.28 0.29 0.25 0.27 0.27 0.32 0.26 0.29 0.30 0.31 0.30 0.26 0.36 0.40 0.34 0.29 0.28 0.36 0.35 0.35 0.31 0.31 0.31 0.22 0.17 0.22 0.25
0.78 0.71 0.73 0.76 0.76 0.75 0.71 0.68 0.67 0.65 0.66 0.68 0.68 0.67 0.66 0.70 0.77 0.63 0.40 0.33 0.33 0.31 0.30 0.27 0.29 0.29 0.28 0.31 0.30 0.35 0.34 0.33 0.32 0.38 0.32 0.33 0.30 0.38 0.31 0.29 0.35 0.32 0.29 0.29 0.26 0.28 0.19
0.77 0.71 0.75 0.76 0.76 0.75 0.72 0.67 0.66 0.64 0.66 0.66 0.57 0.54 0.54 0.72 0.67 0.50 0.40 0.39 0.40 0.38 0.35 0.31 0.24 0.31 0.29 0.26 0.28 0.33 0.33 0.37 0.27 0.36 0.41 0.38 0.28 0.32 0.33 0.43 0.41 0.31 0.30 0.25 0.27 0.17 0.15
0.77 0.73 0.76 0.74 0.75 0.74 0.73 0.67 0.65 0.64 0.64 0.65 0.56 0.37 0.63 0.76 0.55 0.38 0.31 0.45 0.40 0.40 0.38 0.31 0.34 0.32 0.38 0.32 0.35 0.37 0.35 0.36 0.39 0.33 0.33 0.36 0.34 0.25 0.34 0.29 0.26 0.31 0.31 0.28 0.26 0.24 0.18
0.78 0.75 0.75 0.72 0.73 0.74 0.74 0.70 0.69 0.65 0.63 0.59 0.53 0.32 0.78 0.68 0.27 0.34 0.32 0.46 0.42 0.35 0.37 0.38 0.43 0.37 0.40 0.36 0.38 0.37 0.36 0.38 0.43 0.42 0.30 0.28 0.29 0.22 0.26 0.31 0.30 0.27 0.28 0.28 0.20 0.19 0.28
0.79 0.77 0.74 0.71 0.71 0.75 0.76 0.75 0.74 0.66 0.61 0.59 0.42 0.56 0.85 0.59 0.21 0.24 0.45 0.44 0.40 0.30 0.32 0.36 0.40 0.43 0.45 0.38 0.35 0.41 0.41 0.46 0.44 0.39 0.29 0.28 0.21 0.18 0.22 0.33 0.32 0.25 0.31 0.29 0.31 0.30 0.22
0.80 0.79 0.74 0.71 0.71 0.76 0.78 0.77 0.77 0.66 0.63 0.63 0.64 0.47 0.55 0.44 0.56 0.40 0.43 0.39 0.36 0.42 0.39 0.41 0.41 0.42 0.43 0.40 0.43 0.38 0.38 0.41 0.41 0.27 0.25 0.35 0.22 0.20 0.17 0.20 0.23 0.20 0.22 0.24 0.26 0.23 0.24
0.81 0.80 0.76 0.71 0.72 0.77 0.79 0.77 0.78 0.68 0.65 0.78 0.75 0.53 0.46 0.21 0.44 0.44 0.50 0.39 0.33 0.32 0.41 0.43 0.40 0.40 0.38 0.35 0.37 0.36 0.40 0.38 0.37 0.27 0.27 0.28 0.19 0.21 0.22 0.21 0.21 0.21 0.20 0.22 0.23 0.25 0.24
0.82 0.82 0.76 0.71 0.73 0.77 0.79 0.78 0.79 0.71 0.76 0.84 0.66 0.67 0.42 0.30 0.45 0.44 0.46 0.39 0.36 0.37 0.36 0.34 0.37 0.43 0.44 0.38 0.39 0.36 0.39 0.33 0.29 0.28 0.27 0.26 0.19 0.20 0.14 0.24 0.23 0.17 0.22 0.27 0.26 0.29 0.30
0.83 0.83 0.78 0.74 0.73 0.77 0.80 0.81 0.81 0.77 0.84 0.75 0.92 0.85 0.59 0.51 0.30 0.41 0.43 0.40 0.41 0.43 0.43 0.46 0.46 0.46 0.44 0.44 0.47 0.49 0.48 0.40 0.37 0.29 0.27 0.27 0.21 0.17 0.13 0.22 0.19 0.19 0.25 0.25 0.27 0.32 0.32
0.84 0.83 0.80 0.77 0.74 0.77 0.80 0.82 0.83 0.81 0.87 0.89 0.80 0.76 0.55 0.37 0.45 0.39 0.44 0.43 0.45 0.44 0.41 0.50 0.53 0.48 0.54 0.59 0.53 0.51 0.47 0.41 0.37 0.36 0.39 0.26 0.23 0.21 0.14 0.18 0.09 0.25 0.30 0.30 0.28 0.33 0.37
0.85 0.83 0.83 0.79 0.77 0.75 0.77 0.81 0.86 0.85 0.91 0.86 0.81 0.74 0.55 0.39 0.45 0.45 0.45 0.46 0.50 0.51 0.46 0.48 0.53 0.59 0.63 0.53 0.32 0.24 0.22 0.24 0.29 0.33 0.35 0.35 0.24 0.17 0.14 0.15 0.18 0.22 0.30 0.29 0.28 0.29 0.41
0.86 0.84 0.85 0.83 0.78 0.75 0.73 0.78 0.84 0.85 0.86 0.78 0.76 0.90 0.66 0.44 0.41 0.56 0.47 0.49 0.45 0.44 0.46 0.51 0.63 0.67 0.61 0.44 0.31 0.18 0.15 0.18 0.19 0.24 0.37 0.38 0.37 0.22 0.20 0.13 0.10 0.23 0.35 0.41 0.39 0.24 0.47
0.88 0.86 0.86 0.86 0.82 0.77 0.72 0.71 0.77 0.84 0.89 0.82 0.69 0.84 0.71 0.49 0.57 0.59 0.49 0.47 0.56 0.52 0.47 0.53 0.55 0.54 0.58 0.35 0.23 0.17 0.18 0.28 0.19 0.20 0.21 0.25 0.28 0.21 0.20 0.17 0.19 0.28 0.38 0.40 0.22 0.25 0.51
0.89 0.88 0.87 0.87 0.86 0.82 0.75 0.70 0.71 0.76 0.83 0.82 0.64 0.83 0.67 0.54 0.60 0.68 0.69 0.58 0.57 0.56 0.44 0.53 0.47 0.48 0.45 0.30 0.23 0.21 0.20 0.24 0.24 0.27 0.23 0.20 0.19 0.19 0.24 0.20 0.14 0.36 0.38 0.28 0.35 0.48 0.54
0.90 0.89 0.88 0.88 0.88 0.86 0.82 0.75 0.70 0.71 0.77 0.86 0.61 0.79 0.79 0.56 0.56 0.80 0.83 0.86 0.80 0.78 0.63 0.61 0.48 0.46 0.45 0.33 0.31 0.31 0.22 0.29 0.25 0.19 0.34 0.23 0.25 0.23 0.25 0.22 0.36 0.44 0.43 0.49 0.49 0.50 0.57

GFSGBSN_prec_pwat_024.txt.gz
Precipitable_Water
0.72 0.68 0.67 0.67 0.69 0.68 0.71 0.76 0.77 0.75 0.70 0.70 0.69 0.69 0.70 0.69 0.68 0.68 0.64 0.59 0.56 0.58 0.59 0.63 0.64 0.67 0.66 0.49 0.37 0.44 0.45 0.50 0.51 0.46 0.43 0.42 0.42 0.39 0.30 0.30 0.26 0.23 0.23 0.23 0.26 0.24 0.22
0.71 0.68 0.66 0.67 0.69 0.69 0.74 0.76 0.78 0.73 0.71 0.69 0.70 0.71 0.72 0.69 0.66 0.65 0.61 0.57 0.57 0.62 0.64 0.66 0.66 0.74 0.59 0.40 0.53 0.49 0.48 0.54 0.52 0.52 0.49 0.48 0.42 0.39 0.32 0.30 0.24 0.22 0.22 0.20 0.22 0.23 0.20
0.68 0.65 0.65 0.66 0.68 0.72 0.75 0.78 0.75 0.73 0.70 0.70 0.73 0.73 0.72 0.69 0.65 0.63 0.60 0.55 0.60 0.65 0.68 0.66 0.69 0.74 0.58 0.43 0.56 0.50 0.49 0.49 0.53 0.53 0.47 0.44 0.41 0.37 0.33 0.24 0.25 0.21 0.12 0.11 0.13 0.17 0.15
0.65 0.65 0.65 0.66 0.68 0.72 0.77 0.75 0.74 0.72 0.69 0.71 0.72 0.72 0.71 0.68 0.63 0.60 0.60 0.60 0.64 0.68 0.68 0.69 0.76 0.71 0.45 0.55 0.57 0.47 0.43 0.42 0.47 0.51 0.47 0.44 0.40 0.36 0.29 0.27 0.22 0.18 0.21 0.23 0.28 0.24 0.17
0.65 0.65 0.64 0.67 0.68 0.73 0.76 0.75 0.73 0.70 0.69 0.70 0.69 0.69 0.66 0.63 0.60 0.60 0.63 0.64 0.67 0.69 0.71 0.71 0.62 0.61 0.39 0.59 0.40 0.40 0.38 0.36 0.39 0.44 0.40 0.39 0.39 0.32 0.29 0.21 0.22 0.26 0.20 0.24 0.27 0.31 0.29
0.67 0.65 0.65 0.68 0.71 0.74 0.75 0.74 0.72 0.69 0.70 0.69 0.66 0.63 0.61 0.61 0.63 0.64 0.66 0.68 0.76 0.70 0.67 0.65 0.65 0.45 0.41 0.32 0.30 0.34 0.34 0.33 0.32 0.32 0.24 0.32 0.31 0.26 0.29 0.26 0.22 0.25 0.24 0.24 0.26 0.29 0.30
0.69 0.65 0.69 0.69 0.73 0.75 0.75 0.73 0.71 0.69 0.70 0.70 0.66 0.65 0.65 0.63 0.64 0.69 0.71 0.64 0.48 0.43 0.46 0.29 0.38 0.44 0.39 0.40 0.35 0.25 0.28 0.26 0.29 0.27 0.25 0.35 0.31 0.28 0.29 0.34 0.32 0.29 0.28 0.26 0.31 0.33 0.29
0.69 0.68 0.69 0.72 0.72 0.75 0.75 0.73 0.70 0.71 0.70 0.70 0.66 0.67 0.65 0.65 0.70 0.72 0.68 0.52 0.62 0.65 0.30 0.43 0.47 0.42 0.37 0.31 0.23 0.23 0.27 0.28 0.32 0.34 0.40 0.35 0.29 0.34 0.34 0.33 0.32 0.32 0.28 0.28 0.31 0.33 0.29
0.67 0.69 0.70 0.71 0.73 0.76 0.75 0.72 0.71 0.71 0.70 0.66 0.66 0.64 0.64 0.68 0.70 0.64 0.67 0.71 0.84 0.76 0.43 0.37 0.39 0.34 0.33 0.38 0.27 0.25 0.34 0.38 0.34 0.34 0.32 0.28 0.30 0.32 0.34 0.32 0.30 0.32 0.28 0.29 0.29 0.32 0.30
0.69 0.70 0.71 0.71 0.74 0.76 0.74 0.72 0.72 0.70 0.67 0.65 0.66 0.65 0.68 0.69 0.59 0.67 0.59 0.76 0.89 0.77 0.29 0.28 0.30 0.29 0.37 0.38 0.27 0.35 0.39 0.38 0.33 0.29 0.30 0.30 0.34 0.33 0.30 0.22 0.25 0.22 0.33 0.33 0.29 0.23 0.14
0.69 0.73 0.71 0.71 0.74 0.76 0.74 0.72 0.72 0.70 0.69 0.66 0.65 0.68 0.68 0.70 0.73 0.63 0.82 0.96 0.85 0.66 0.13 0.24 0.26 0.35 0.36 0.32 0.25 0.23 0.39 0.38 0.28 0.29 0.29 0.26 0.30 0.29 0.28 0.27 0.29 0.22 0.27 0.25 0.26 0.20 0.20
0.67 0.74 0.70 0.70 0.75 0.76 0.74 0.73 0.73 0.70 0.70 0.64 0.66 0.73 0.71 0.74 0.84 0.85 0.97 0.79 0.65 0.33 0.14 0.23 0.29 0.21 0.27 0.33 0.28 0.22 0.26 0.39 0.39 0.31 0.33 0.32 0.41 0.33 0.30 0.32 0.32 0.31 0.27 0.29 0.32 0.28 0.18
0.69 0.73 0.70 0.70 0.76 0.76 0.74 0.73 0.72 0.70 0.67 0.65 0.71 0.72 0.73 0.90 0.73 0.92 0.78 0.56 0.32 0.29 0.27 0.21 0.19 0.21 0.23 0.24 0.24 0.20 0.22 0.28 0.27 0.22 0.22 0.29 0.32 0.33 0.35 0.30 0.35 0.30 0.28 0.22 0.22 0.24 0.25
0.72 0.72 0.70 0.72 0.76 0.77 0.75 0.72 0.71 0.69 0.66 0.69 0.71 0.74 0.80 0.91 0.94 0.84 0.63 0.41 0.32 0.27 0.25 0.25 0.27 0.27 0.23 0.28 0.29 0.29 0.26 0.26 0.34 0.36 0.27 0.26 0.26 0.32 0.33 0.36 0.31 0.29 0.27 0.20 0.18 0.21 0.24
0.73 0.72 0.73 0.74 0.77 0.76 0.74 0.71 0.69 0.67 0.66 0.69 0.73 0.70 0.68 0.73 0.81 0.72 0.45 0.38 0.35 0.29 0.29 0.25 0.30 0.26 0.25 0.29 0.30 0.32 0.31 0.28 0.34 0.40 0.29 0.28 0.30 0.38 0.28 0.33 0.38 0.32 0.22 0.30 0.23 0.26 0.20
0.74 0.74 0.75 0.74 0.78 0.76 0.74 0.70 0.69 0.66 0.66 0.70 0.60 0.55 0.52 0.74 0.72 0.52 0.41 0.42 0.40 0.38 0.35 0.31 0.24 0.29 0.26 0.25 0.27 0.31 0.31 0.38 0.30 0.40 0.45 0.37 0.28 0.31 0.34 0.37 0.33 0.25 0.31 0.21 0.21 0.12 0.13
0.76 0.76 0.75 0.75 0.78 0.76 0.73 0.69 0.68 0.65 0.66 0.70 0.60 0.36 0.57 0.78 0.59 0.37 0.31 0.44 0.41 0.41 0.40 0.30 0.29 0.31 0.33 0.30 0.27 0.30 0.32 0.36 0.35 0.35 0.38 0.39 0.32 0.24 0.34 0.30 0.24 0.27 0.24 0.24 0.24 0.22 0.14
0.77 0.78 0.76 0.75 0.78 0.77 0.73 0.69 0.66 0.64 0.67 0.64 0.52 0.27 0.72 0.71 0.28 0.33 0.27 0.51 0.44 0.40 0.40 0.38 0.40 0.40 0.37 0.36 0.35 0.35 0.35 0.36 0.43 0.39 0.27 0.37 0.29 0.22 0.26 0.27 0.30 0.29 0.25 0.23 0.15 0.17 0.23
0.79 0.77 0.76 0.75 0.77 0.78 0.73 0.71 0.66 0.65 0.66 0.57 0.38 0.52 0.80 0.62 0.20 0.24 0.31 0.42 0.41 0.36 0.35 0.33 0.38 0.42 0.44 0.39 0.35 0.41 0.42 0.49 0.42 0.39 0.28 0.32 0.24 0.18 0.21 0.29 0.30 0.25 0.29 0.27 0.25 0.25 0.19
0.81 0.77 0.74 0.74 0.77 0.78 0.75 0.73 0.68 0.65 0.66 0.66 0.48 0.39 0.54 0.47 0.44 0.27 0.38 0.36 0.36 0.39 0.35 0.35 0.41 0.46 0.41 0.39 0.42 0.39 0.39 0.42 0.37 0.37 0.34 0.36 0.25 0.19 0.13 0.17 0.20 0.18 0.21 0.25 0.23 0.18 0.19
0.83 0.78 0.73 0.74 0.78 0.79 0.75 0.75 0.71 0.64 0.65 0.64 0.60 0.45 0.47 0.24 0.26 0.35 0.43 0.41 0.34 0.29 0.38 0.39 0.36 0.39 0.38 0.34 0.37 0.36 0.40 0.38 0.38 0.30 0.27 0.29 0.17 0.22 0.23 0.22 0.21 0.20 0.19 0.20 0.19 0.21 0.19
0.82 0.78 0.72 0.74 0.78 0.78 0.77 0.78 0.73 0.65 0.65 0.63 0.59 0.54 0.49 0.34 0.37 0.36 0.45 0.38 0.33 0.33 0.36 0.34 0.32 0.38 0.41 0.35 0.35 0.33 0.36 0.32 0.28 0.28 0.24 0.28 0.18 0.20 0.15 0.20 0.20 0.18 0.18 0.22 0.24 0.23 0.25
0.82 0.78 0.73 0.75 0.78 0.79 0.77 0.78 0.73 0.66 0.69 0.70 0.81 0.80 0.47 0.40 0.38 0.38 0.37 0.39 0.38 0.42 0.41 0.42 0.41 0.42 0.42 0.44 0.48 0.52 0.49 0.46 0.38 0.29 0.24 0.22 0.18 0.15 0.10 0.20 0.20 0.13 0.19 0.23 0.24 0.27 0.26
0.83 0.78 0.75 0.77 0.79 0.79 0.78 0.79 0.76 0.71 0.78 0.97 0.88 0.79 0.52 0.36 0.39 0.37 0.46 0.46 0.44 0.44 0.39 0.46 0.47 0.43 0.54 0.62 0.55 0.51 0.49 0.47 0.43 0.37 0.35 0.25 0.22 0.19 0.13 0.17 0.09 0.20 0.28 0.27 0.25 0.27 0.31
0.83 0.80 0.78 0.80 0.79 0.79 0.79 0.80 0.77 0.80 0.93 0.98 0.95 0.80 0.55 0.40 0.44 0.42 0.46 0.49 0.49 0.51 0.46 0.46 0.49 0.56 0.63 0.53 0.39 0.32 0.31 0.34 0.35 0.38 0.36 0.34 0.24 0.16 0.13 0.13 0.16 0.20 0.26 0.24 0.23 0.24 0.36
0.83 0.83 0.81 0.81 0.78 0.79 0.80 0.81 0.79 0.83 0.92 0.83 0.88 0.92 0.61 0.42 0.43 0.56 0.46 0.49 0.43 0.42 0.45 0.48 0.59 0.66 0.60 0.48 0.37 0.24 0.19 0.19 0.20 0.25 0.38 0.36 0.31 0.18 0.18 0.11 0.09 0.18 0.31 0.36 0.33 0.18 0.39
0.84 0.85 0.84 0.82 0.78 0.77 0.80 0.82 0.82 0.85 0.84 0.74 0.75 0.87 0.64 0.46 0.56 0.59 0.48 0.47 0.54 0.48 0.42 0.49 0.51 0.52 0.58 0.39 0.31 0.24 0.22 0.29 0.18 0.18 0.19 0.24 0.26 0.19 0.18 0.15 0.16 0.25 0.35 0.38 0.19 0.19 0.38
0.86 0.86 0.85 0.84 0.80 0.75 0.74 0.79 0.84 0.87 0.86 0.77 0.74 0.87 0.66 0.53 0.60 0.67 0.66 0.55 0.54 0.49 0.39 0.50 0.47 0.49 0.44 0.33 0.28 0.27 0.23 0.26 0.24 0.26 0.22 0.19 0.18 0.18 0.22 0.17 0.12 0.31 0.35 0.25 0.30 0.41 0.44
0.89 0.87 0.87 0.86 0.82 0.78 0.73 0.71 0.74 0.80 0.86 0.79 0.62 0.81 0.79 0.57 0.60 0.79 0.80 0.80 0.73 0.67 0.56 0.56 0.44 0.44 0.45 0.35 0.34 0.32 0.24 0.29 0.24 0.17 0.32 0.20 0.21 0.19 0.21 0.19 0.30 0.37 0.36 0.43 0.47 0.47 0.48

GFSGBSN_prec_pwat_027.txt.gz
Precipitable_Water
0.75 0.73 0.71 0.65 0.65 0.67 0.68 0.68 0.69 0.70 0.71 0.73 0.70 0.69 0.67 0.66 0.69 0.69 0.68 0.65 0.62 0.55 0.56 0.56 0.62 0.65 0.58 0.46 0.37 0.50 0.54 0.55 0.53 0.47 0.41 0.43 0.44 0.43 0.34 0.34 0.34 0.26 0.26 0.27 0.27 0.27 0.28
0.77 0.75 0.72 0.65 0.66 0.66 0.68 0.68 0.70 0.70 0.72 0.73 0.69 0.68 0.67 0.69 0.71 0.69 0.67 0.64 0.59 0.56 0.59 0.62 0.66 0.70 0.54 0.35 0.51 0.54 0.55 0.53 0.53 0.52 0.47 0.46 0.43 0.45 0.38 0.32 0.26 0.25 0.24 0.25 0.26 0.23 0.23
0.75 0.74 0.72 0.66 0.65 0.67 0.67 0.67 0.69 0.70 0.73 0.71 0.69 0.68 0.71 0.72 0.72 0.67 0.64 0.61 0.55 0.57 0.63 0.67 0.71 0.71 0.52 0.41 0.55 0.54 0.53 0.51 0.53 0.55 0.47 0.49 0.47 0.42 0.34 0.30 0.28 0.25 0.20 0.18 0.21 0.18 0.16
0.75 0.72 0.70 0.65 0.65 0.68 0.67 0.67 0.69 0.71 0.71 0.69 0.67 0.68 0.71 0.72 0.70 0.65 0.62 0.60 0.56 0.63 0.67 0.71 0.77 0.71 0.43 0.51 0.55 0.51 0.50 0.48 0.50 0.59 0.54 0.47 0.48 0.40 0.31 0.28 0.26 0.24 0.23 0.17 0.18 0.18 0.17
0.75 0.70 0.68 0.64 0.66 0.67 0.66 0.68 0.71 0.71 0.70 0.66 0.67 0.69 0.70 0.69 0.66 0.62 0.59 0.61 0.63 0.67 0.72 0.75 0.68 0.61 0.39 0.50 0.45 0.46 0.45 0.43 0.45 0.50 0.46 0.43 0.45 0.37 0.32 0.26 0.22 0.21 0.21 0.23 0.25 0.26 0.23
0.76 0.69 0.66 0.63 0.66 0.68 0.67 0.70 0.72 0.71 0.68 0.65 0.68 0.66 0.67 0.64 0.60 0.58 0.60 0.68 0.70 0.73 0.72 0.77 0.72 0.43 0.45 0.40 0.41 0.40 0.42 0.41 0.41 0.41 0.33 0.35 0.35 0.30 0.28 0.22 0.15 0.18 0.22 0.23 0.24 0.29 0.28
0.75 0.70 0.65 0.65 0.68 0.68 0.68 0.71 0.72 0.70 0.67 0.68 0.69 0.64 0.60 0.58 0.57 0.62 0.64 0.61 0.50 0.48 0.53 0.35 0.38 0.42 0.44 0.42 0.37 0.34 0.36 0.34 0.38 0.34 0.25 0.33 0.27 0.21 0.23 0.28 0.29 0.26 0.24 0.24 0.28 0.32 0.29
0.73 0.70 0.66 0.67 0.70 0.68 0.69 0.73 0.73 0.68 0.68 0.70 0.66 0.64 0.61 0.61 0.64 0.68 0.69 0.61 0.69 0.63 0.30 0.40 0.47 0.44 0.42 0.42 0.27 0.28 0.33 0.27 0.27 0.23 0.30 0.29 0.25 0.31 0.35 0.36 0.31 0.32 0.26 0.26 0.30 0.34 0.29
0.72 0.70 0.67 0.68 0.70 0.68 0.72 0.74 0.72 0.69 0.70 0.70 0.64 0.66 0.63 0.65 0.69 0.72 0.75 0.72 0.83 0.67 0.36 0.39 0.41 0.35 0.36 0.37 0.24 0.22 0.27 0.29 0.29 0.32 0.33 0.30 0.30 0.38 0.36 0.36 0.32 0.32 0.27 0.27 0.28 0.32 0.32
0.72 0.68 0.67 0.70 0.69 0.68 0.72 0.73 0.71 0.70 0.70 0.68 0.64 0.66 0.66 0.69 0.62 0.69 0.59 0.74 0.88 0.75 0.32 0.31 0.30 0.32 0.34 0.35 0.24 0.31 0.34 0.37 0.38 0.33 0.32 0.30 0.34 0.31 0.31 0.28 0.28 0.27 0.36 0.33 0.30 0.28 0.22
0.70 0.68 0.66 0.69 0.69 0.69 0.73 0.73 0.71 0.71 0.70 0.66 0.64 0.65 0.68 0.69 0.68 0.59 0.78 0.95 0.90 0.61 0.15 0.28 0.29 0.38 0.39 0.31 0.28 0.30 0.42 0.40 0.32 0.33 0.31 0.29 0.33 0.31 0.28 0.28 0.28 0.23 0.32 0.30 0.30 0.25 0.23
0.69 0.67 0.66 0.71 0.68 0.71 0.74 0.72 0.72 0.72 0.70 0.65 0.65 0.67 0.70 0.74 0.77 0.79 0.96 0.80 0.63 0.31 0.14 0.23 0.30 0.27 0.31 0.32 0.28 0.29 0.36 0.44 0.41 0.33 0.34 0.33 0.39 0.33 0.30 0.34 0.33 0.33 0.30 0.31 0.32 0.27 0.17
0.71 0.65 0.70 0.73 0.70 0.72 0.74 0.73 0.73 0.74 0.69 0.65 0.67 0.71 0.67 0.87 0.71 0.94 0.83 0.54 0.29 0.27 0.27 0.21 0.21 0.23 0.27 0.26 0.24 0.23 0.31 0.32 0.28 0.24 0.25 0.32 0.31 0.34 0.34 0.29 0.33 0.29 0.25 0.18 0.19 0.20 0.19
0.72 0.65 0.74 0.72 0.71 0.74 0.73 0.75 0.73 0.73 0.68 0.68 0.70 0.72 0.76 0.89 1.00 0.87 0.63 0.38 0.25 0.32 0.22 0.26 0.22 0.22 0.22 0.26 0.25 0.22 0.25 0.26 0.33 0.30 0.27 0.23 0.21 0.28 0.36 0.33 0.29 0.26 0.26 0.21 0.15 0.19 0.24
0.72 0.70 0.74 0.72 0.73 0.75 0.74 0.75 0.74 0.73 0.69 0.71 0.72 0.71 0.76 0.85 0.89 0.76 0.46 0.29 0.32 0.29 0.28 0.23 0.25 0.22 0.24 0.28 0.26 0.23 0.23 0.25 0.30 0.34 0.25 0.25 0.26 0.35 0.30 0.37 0.35 0.30 0.20 0.29 0.21 0.25 0.19
0.70 0.74 0.74 0.72 0.75 0.74 0.75 0.75 0.75 0.73 0.70 0.73 0.64 0.60 0.58 0.86 0.80 0.61 0.42 0.37 0.40 0.38 0.33 0.31 0.22 0.27 0.22 0.26 0.26 0.28 0.28 0.31 0.31 0.38 0.44 0.35 0.28 0.33 0.33 0.34 0.34 0.29 0.32 0.20 0.19 0.11 0.12
0.70 0.73 0.73 0.72 0.75 0.75 0.75 0.76 0.75 0.73 0.70 0.72 0.60 0.40 0.66 0.80 0.63 0.46 0.37 0.44 0.45 0.41 0.39 0.32 0.29 0.28 0.30 0.27 0.28 0.29 0.30 0.37 0.38 0.38 0.42 0.41 0.34 0.29 0.33 0.29 0.25 0.25 0.20 0.21 0.22 0.20 0.12
0.73 0.72 0.73 0.73 0.75 0.74 0.76 0.77 0.74 0.71 0.71 0.70 0.52 0.31 0.74 0.65 0.32 0.41 0.39 0.49 0.49 0.42 0.44 0.38 0.38 0.35 0.34 0.35 0.30 0.31 0.29 0.35 0.43 0.38 0.32 0.42 0.32 0.26 0.26 0.33 0.30 0.28 0.23 0.20 0.12 0.13 0.20
0.77 0.74 0.74 0.75 0.74 0.74 0.77 0.78 0.73 0.71 0.67 0.63 0.42 0.51 0.76 0.55 0.23 0.28 0.38 0.45 0.46 0.40 0.38 0.37 0.36 0.40 0.43 0.38 0.32 0.38 0.39 0.49 0.45 0.36 0.31 0.36 0.28 0.20 0.21 0.24 0.28 0.24 0.26 0.25 0.22 0.21 0.15
0.79 0.74 0.73 0.76 0.75 0.76 0.79 0.78 0.71 0.70 0.67 0.65 0.48 0.36 0.48 0.48 0.36 0.25 0.27 0.38 0.37 0.45 0.39 0.40 0.39 0.44 0.42 0.40 0.45 0.39 0.41 0.47 0.42 0.38 0.39 0.39 0.27 0.20 0.13 0.17 0.24 0.18 0.21 0.24 0.21 0.16 0.17
0.80 0.75 0.73 0.76 0.77 0.79 0.82 0.77 0.70 0.68 0.70 0.66 0.55 0.41 0.40 0.26 0.28 0.29 0.30 0.38 0.33 0.31 0.38 0.39 0.35 0.39 0.39 0.36 0.38 0.37 0.42 0.42 0.36 0.36 0.37 0.29 0.18 0.24 0.23 0.22 0.20 0.18 0.18 0.21 0.19 0.19 0.15
0.78 0.73 0.74 0.76 0.79 0.82 0.83 0.78 0.69 0.67 0.72 0.57 0.51 0.46 0.41 0.31 0.27 0.31 0.34 0.38 0.34 0.34 0.34 0.29 0.29 0.39 0.41 0.35 0.35 0.34 0.39 0.36 0.29 0.33 0.28 0.28 0.19 0.22 0.19 0.23 0.20 0.16 0.18 0.19 0.19 0.19 0.20
0.79 0.73 0.75 0.78 0.81 0.84 0.84 0.77 0.69 0.65 0.65 0.55 0.74 0.72 0.43 0.35 0.24 0.30 0.29 0.39 0.35 0.37 0.39 0.40 0.37 0.36 0.36 0.42 0.47 0.49 0.48 0.42 0.36 0.29 0.25 0.20 0.18 0.17 0.11 0.18 0.17 0.12 0.14 0.18 0.20 0.23 0.22
0.75 0.74 0.76 0.79 0.83 0.86 0.84 0.78 0.70 0.63 0.61 0.76 0.81 0.68 0.41 0.29 0.25 0.29 0.35 0.40 0.39 0.40 0.35 0.40 0.42 0.38 0.48 0.59 0.56 0.52 0.49 0.47 0.44 0.40 0.36 0.23 0.19 0.16 0.11 0.15 0.08 0.14 0.24 0.24 0.22 0.24 0.27
0.76 0.77 0.77 0.81 0.85 0.88 0.83 0.79 0.70 0.63 0.69 0.84 0.92 0.75 0.48 0.32 0.37 0.39 0.36 0.40 0.47 0.49 0.45 0.45 0.47 0.53 0.57 0.49 0.41 0.36 0.34 0.34 0.37 0.43 0.40 0.36 0.23 0.15 0.12 0.12 0.14 0.15 0.22 0.22 0.20 0.19 0.29
0.78 0.79 0.79 0.83 0.88 0.87 0.82 0.77 0.71 0.69 0.78 1.02 0.93 0.86 0.60 0.43 0.44 0.52 0.48 0.49 0.42 0.42 0.44 0.48 0.58 0.60 0.55 0.43 0.35 0.27 0.24 0.24 0.22 0.26 0.40 0.36 0.32 0.19 0.17 0.11 0.09 0.13 0.25 0.31 0.31 0.17 0.30
0.81 0.80 0.80 0.83 0.87 0.85 0.82 0.80 0.76 0.81 0.91 0.96 0.92 0.94 0.62 0.50 0.61 0.59 0.47 0.45 0.51 0.46 0.41 0.48 0.50 0.49 0.53 0.38 0.32 0.28 0.26 0.30 0.21 0.20 0.22 0.25 0.25 0.18 0.16 0.13 0.15 0.20 0.31 0.35 0.18 0.15 0.32
0.83 0.82 0.81 0.82 0.87 0.84 0.81 0.79 0.77 0.78 0.89 0.89 0.86 0.89 0.64 0.51 0.60 0.67 0.64 0.53 0.52 0.50 0.39 0.47 0.45 0.48 0.44 0.35 0.31 0.28 0.26 0.28 0.27 0.28 0.24 0.20 0.18 0.17 0.20 0.16 0.12 0.26 0.32 0.22 0.25 0.31 0.38
0.85 0.83 0.83 0.82 0.82 0.85 0.83 0.81 0.81 0.80 0.79 0.84 0.68 0.83 0.79 0.58 0.61 0.77 0.77 0.78 0.72 0.63 0.54 0.54 0.46 0.45 0.47 0.36 0.34 0.32 0.26 0.30 0.26 0.18 0.32 0.21 0.22 0.18 0.20 0.16 0.25 0.31 0.31 0.37 0.39 0.38 0.43

GFSGBSN_prec_pwat_030.txt.gz
Precipitable_Water
0.84 0.79 0.77 0.73 0.71 0.66 0.63 0.64 0.66 0.67 0.69 0.68 0.68 0.71 0.69 0.68 0.66 0.67 0.70 0.70 0.68 0.62 0.57 0.56 0.58 0.61 0.58 0.39 0.37 0.56 0.57 0.56 0.51 0.42 0.38 0.40 0.36 0.37 0.34 0.34 0.35 0.33 0.30 0.32 0.42 0.48 0.47
0.87 0.81 0.76 0.74 0.72 0.67 0.64 0.65 0.66 0.67 0.69 0.68 0.70 0.72 0.67 0.66 0.67 0.70 0.70 0.69 0.64 0.60 0.56 0.56 0.62 0.67 0.49 0.33 0.51 0.59 0.58 0.54 0.51 0.48 0.46 0.45 0.42 0.46 0.41 0.38 0.31 0.29 0.27 0.27 0.30 0.30 0.31
0.92 0.84 0.77 0.76 0.74 0.68 0.65 0.65 0.67 0.68 0.67 0.69 0.72 0.70 0.66 0.67 0.70 0.72 0.70 0.67 0.63 0.58 0.57 0.62 0.67 0.66 0.50 0.41 0.54 0.57 0.55 0.51 0.53 0.50 0.48 0.51 0.49 0.45 0.41 0.33 0.34 0.26 0.24 0.25 0.25 0.25 0.25
0.95 0.85 0.78 0.74 0.73 0.69 0.65 0.65 0.67 0.69 0.68 0.71 0.72 0.66 0.65 0.67 0.72 0.72 0.69 0.65 0.61 0.55 0.60 0.67 0.74 0.68 0.40 0.52 0.54 0.54 0.53 0.46 0.54 0.57 0.53 0.53 0.53 0.44 0.37 0.33 0.27 0.24 0.21 0.18 0.22 0.21 0.20
0.97 0.84 0.78 0.74 0.73 0.68 0.65 0.64 0.67 0.68 0.71 0.72 0.70 0.65 0.65 0.68 0.71 0.70 0.66 0.63 0.58 0.58 0.67 0.75 0.69 0.62 0.39 0.53 0.45 0.50 0.49 0.43 0.49 0.54 0.50 0.50 0.47 0.35 0.30 0.25 0.24 0.24 0.21 0.22 0.18 0.19 0.17
0.95 0.85 0.77 0.72 0.69 0.66 0.64 0.65 0.67 0.69 0.72 0.72 0.67 0.64 0.66 0.66 0.69 0.67 0.64 0.64 0.63 0.68 0.70 0.76 0.77 0.50 0.45 0.41 0.46 0.43 0.46 0.47 0.46 0.47 0.41 0.42 0.40 0.31 0.28 0.25 0.19 0.19 0.25 0.25 0.22 0.24 0.25
0.96 0.88 0.76 0.72 0.67 0.64 0.63 0.64 0.67 0.71 0.71 0.70 0.65 0.66 0.66 0.65 0.66 0.64 0.61 0.57 0.47 0.44 0.54 0.37 0.43 0.38 0.46 0.50 0.45 0.41 0.42 0.42 0.44 0.38 0.30 0.36 0.31 0.28 0.30 0.28 0.29 0.25 0.24 0.23 0.26 0.28 0.26
0.96 0.94 0.77 0.71 0.65 0.63 0.64 0.67 0.68 0.72 0.71 0.69 0.66 0.67 0.63 0.62 0.62 0.62 0.63 0.49 0.51 0.60 0.35 0.47 0.46 0.46 0.47 0.48 0.34 0.35 0.40 0.35 0.34 0.29 0.34 0.31 0.26 0.31 0.33 0.31 0.30 0.25 0.24 0.25 0.28 0.30 0.28
1.03 0.97 0.77 0.70 0.66 0.62 0.66 0.68 0.70 0.72 0.71 0.67 0.68 0.65 0.63 0.62 0.66 0.67 0.64 0.68 0.87 0.77 0.37 0.36 0.44 0.42 0.37 0.39 0.30 0.29 0.34 0.35 0.30 0.31 0.31 0.28 0.29 0.34 0.33 0.34 0.28 0.30 0.25 0.27 0.28 0.32 0.34
1.08 1.00 0.78 0.69 0.65 0.63 0.68 0.68 0.72 0.72 0.69 0.67 0.68 0.66 0.65 0.67 0.60 0.69 0.64 0.77 0.95 0.76 0.26 0.32 0.38 0.37 0.37 0.38 0.27 0.35 0.37 0.34 0.30 0.30 0.30 0.31 0.37 0.34 0.35 0.33 0.34 0.28 0.36 0.32 0.31 0.28 0.23
1.10 1.05 0.81 0.69 0.65 0.65 0.69 0.68 0.72 0.71 0.69 0.67 0.69 0.67 0.68 0.67 0.65 0.61 0.72 0.94 0.90 0.63 0.18 0.33 0.34 0.39 0.37 0.30 0.27 0.28 0.38 0.35 0.28 0.32 0.30 0.28 0.31 0.31 0.30 0.30 0.31 0.25 0.32 0.32 0.32 0.27 0.26
1.19 1.10 0.82 0.69 0.65 0.67 0.68 0.70 0.72 0.71 0.68 0.67 0.69 0.68 0.72 0.69 0.74 0.76 0.95 0.83 0.65 0.30 0.16 0.26 0.30 0.27 0.30 0.31 0.26 0.29 0.35 0.41 0.41 0.36 0.33 0.34 0.40 0.36 0.33 0.35 0.33 0.32 0.29 0.29 0.31 0.27 0.17
1.12 1.13 0.85 0.69 0.66 0.70 0.69 0.71 0.73 0.71 0.69 0.68 0.68 0.70 0.70 0.77 0.64 0.96 0.84 0.59 0.28 0.22 0.27 0.22 0.22 0.28 0.30 0.28 0.24 0.28 0.32 0.33 0.29 0.26 0.26 0.32 0.32 0.36 0.37 0.30 0.32 0.29 0.24 0.15 0.15 0.17 0.16
1.06 1.13 0.88 0.69 0.68 0.72 0.70 0.73 0.74 0.71 0.70 0.68 0.71 0.72 0.73 0.87 0.96 0.93 0.66 0.35 0.21 0.34 0.22 0.27 0.24 0.28 0.25 0.28 0.25 0.28 0.31 0.28 0.34 0.30 0.27 0.23 0.20 0.29 0.33 0.29 0.27 0.26 0.26 0.19 0.14 0.16 0.20
1.02 1.16 0.89 0.68 0.71 0.72 0.71 0.77 0.74 0.73 0.71 0.71 0.76 0.71 0.76 0.92 0.90 0.80 0.44 0.25 0.32 0.32 0.29 0.23 0.23 0.18 0.22 0.26 0.22 0.23 0.26 0.28 0.33 0.34 0.23 0.24 0.24 0.33 0.32 0.36 0.36 0.28 0.21 0.31 0.24 0.26 0.20
0.99 1.15 0.79 0.68 0.72 0.72 0.75 0.77 0.76 0.75 0.72 0.75 0.65 0.64 0.71 0.93 0.90 0.65 0.38 0.32 0.41 0.42 0.33 0.23 0.15 0.21 0.18 0.23 0.21 0.21 0.23 0.29 0.28 0.34 0.39 0.31 0.23 0.32 0.33 0.35 0.36 0.34 0.35 0.20 0.20 0.10 0.10
1.12 1.12 0.73 0.71 0.72 0.72 0.78 0.76 0.78 0.76 0.76 0.82 0.67 0.51 0.72 0.89 0.71 0.45 0.33 0.35 0.45 0.44 0.36 0.25 0.24 0.24 0.25 0.24 0.28 0.23 0.24 0.31 0.33 0.35 0.40 0.38 0.31 0.31 0.33 0.27 0.24 0.27 0.22 0.20 0.20 0.18 0.10
1.08 0.98 0.71 0.74 0.71 0.73 0.78 0.76 0.79 0.77 0.83 0.82 0.57 0.35 0.79 0.74 0.39 0.42 0.37 0.44 0.54 0.39 0.42 0.37 0.34 0.33 0.31 0.33 0.30 0.29 0.28 0.32 0.44 0.40 0.31 0.40 0.34 0.28 0.31 0.33 0.35 0.31 0.24 0.20 0.11 0.11 0.17
1.09 0.86 0.75 0.74 0.71 0.74 0.76 0.78 0.79 0.78 0.83 0.73 0.46 0.53 0.80 0.58 0.29 0.35 0.43 0.46 0.47 0.40 0.39 0.37 0.35 0.39 0.42 0.39 0.33 0.33 0.34 0.43 0.47 0.36 0.32 0.37 0.31 0.25 0.24 0.26 0.31 0.22 0.25 0.24 0.21 0.19 0.13
0.99 0.81 0.79 0.74 0.73 0.74 0.76 0.78 0.79 0.78 0.81 0.75 0.49 0.37 0.52 0.50 0.38 0.37 0.39 0.41 0.41 0.47 0.41 0.42 0.41 0.43 0.40 0.41 0.43 0.38 0.40 0.46 0.47 0.42 0.39 0.39 0.30 0.24 0.17 0.17 0.22 0.19 0.22 0.23 0.19 0.13 0.13
0.86 0.83 0.76 0.73 0.73 0.74 0.76 0.79 0.78 0.78 0.81 0.78 0.52 0.40 0.43 0.30 0.32 0.36 0.38 0.41 0.38 0.35 0.41 0.42 0.38 0.39 0.37 0.36 0.39 0.38 0.44 0.44 0.43 0.45 0.39 0.31 0.22 0.27 0.25 0.24 0.22 0.19 0.18 0.19 0.16 0.17 0.13
0.82 0.79 0.74 0.74 0.73 0.75 0.77 0.80 0.77 0.77 0.84 0.70 0.49 0.43 0.41 0.34 0.34 0.32 0.34 0.35 0.36 0.38 0.38 0.30 0.31 0.38 0.39 0.38 0.39 0.35 0.39 0.38 0.33 0.36 0.33 0.35 0.22 0.22 0.20 0.25 0.22 0.17 0.18 0.18 0.18 0.18 0.18
0.82 0.78 0.74 0.73 0.76 0.78 0.79 0.79 0.75 0.76 0.80 0.62 0.68 0.63 0.40 0.33 0.32 0.27 0.28 0.35 0.36 0.36 0.39 0.39 0.35 0.31 0.35 0.41 0.49 0.49 0.47 0.44 0.38 0.31 0.27 0.25 0.21 0.16 0.13 0.19 0.18 0.13 0.13 0.15 0.16 0.18 0.17
0.81 0.77 0.73 0.76 0.80 0.80 0.81 0.79 0.73 0.74 0.76 0.67 0.68 0.65 0.41 0.26 0.26 0.27 0.28 0.37 0.36 0.35 0.33 0.40 0.40 0.35 0.44 0.57 0.56 0.52 0.48 0.46 0.43 0.39 0.36 0.24 0.19 0.16 0.11 0.14 0.07 0.11 0.19 0.20 0.18 0.19 0.22
0.78 0.76 0.78 0.81 0.83 0.84 0.82 0.77 0.72 0.72 0.77 0.71 0.80 0.69 0.48 0.29 0.26 0.29 0.32 0.36 0.41 0.45 0.41 0.41 0.43 0.48 0.53 0.47 0.42 0.37 0.35 0.35 0.36 0.41 0.39 0.36 0.24 0.15 0.12 0.11 0.12 0.12 0.16 0.18 0.17 0.16 0.25
0.75 0.78 0.82 0.83 0.88 0.86 0.81 0.77 0.72 0.69 0.72 0.76 0.85 0.82 0.61 0.38 0.27 0.36 0.35 0.39 0.35 0.38 0.40 0.46 0.56 0.55 0.50 0.38 0.34 0.27 0.25 0.27 0.23 0.29 0.41 0.37 0.34 0.23 0.18 0.12 0.09 0.13 0.20 0.28 0.27 0.15 0.25
0.78 0.82 0.83 0.86 0.90 0.86 0.83 0.80 0.73 0.67 0.70 0.83 0.89 0.93 0.66 0.45 0.49 0.49 0.37 0.36 0.42 0.43 0.40 0.45 0.47 0.46 0.49 0.34 0.28 0.26 0.25 0.28 0.22 0.21 0.24 0.27 0.27 0.20 0.18 0.14 0.15 0.18 0.26 0.31 0.15 0.13 0.26
0.80 0.82 0.86 0.88 0.90 0.87 0.88 0.84 0.75 0.70 0.76 0.81 0.88 0.94 0.70 0.59 0.61 0.65 0.63 0.53 0.50 0.48 0.37 0.46 0.44 0.47 0.40 0.32 0.30 0.29 0.27 0.28 0.25 0.27 0.26 0.23 0.20 0.19 0.20 0.16 0.12 0.26 0.30 0.21 0.25 0.29 0.31
0.81 0.84 0.86 0.88 0.89 0.89 0.90 0.85 0.77 0.76 0.85 1.09 0.89 0.93 0.86 0.65 0.67 0.81 0.78 0.77 0.68 0.57 0.52 0.54 0.46 0.44 0.44 0.37 0.35 0.32 0.27 0.29 0.25 0.18 0.32 0.21 0.25 0.20 0.21 0.18 0.26 0.30 0.30 0.35 0.37 0.35 0.37

GFSGBSN_prec_pwat_033.txt.gz
Precipitable_Water
1.07 0.99 0.89 0.81 0.78 0.74 0.71 0.69 0.63 0.63 0.66 0.67 0.69 0.69 0.68 0.68 0.70 0.68 0.66 0.67 0.68 0.68 0.62 0.55 0.57 0.62 0.57 0.37 0.34 0.53 0.59 0.57 0.50 0.40 0.34 0.29 0.26 0.28 0.34 0.38 0.37 0.34 0.36 0.38 0.42 0.54 0.57
1.12 1.06 0.95 0.87 0.80 0.76 0.73 0.70 0.66 0.64 0.67 0.69 0.68 0.68 0.69 0.69 0.68 0.66 0.67 0.69 0.68 0.65 0.59 0.55 0.59 0.63 0.48 0.29 0.48 0.59 0.59 0.54 0.48 0.44 0.40 0.42 0.38 0.44 0.39 0.36 0.32 0.34 0.32 0.32 0.42 0.47 0.50
1.12 1.09 1.03 0.93 0.83 0.76 0.73 0.71 0.67 0.66 0.68 0.68 0.69 0.68 0.70 0.69 0.66 0.67 0.70 0.71 0.67 0.64 0.57 0.57 0.63 0.64 0.47 0.37 0.53 0.60 0.55 0.53 0.54 0.51 0.47 0.50 0.48 0.46 0.44 0.37 0.33 0.28 0.26 0.28 0.33 0.40 0.39
1.08 1.07 1.02 0.97 0.86 0.77 0.74 0.71 0.66 0.66 0.69 0.69 0.68 0.69 0.70 0.67 0.66 0.69 0.71 0.71 0.65 0.62 0.57 0.61 0.69 0.66 0.37 0.51 0.57 0.53 0.56 0.51 0.56 0.59 0.53 0.56 0.55 0.46 0.42 0.38 0.33 0.27 0.26 0.21 0.26 0.27 0.30
0.92 1.09 1.00 0.97 0.88 0.77 0.71 0.71 0.67 0.66 0.69 0.68 0.68 0.71 0.70 0.66 0.67 0.70 0.71 0.67 0.65 0.62 0.61 0.69 0.64 0.60 0.37 0.52 0.46 0.52 0.50 0.43 0.52 0.54 0.54 0.56 0.50 0.41 0.36 0.28 0.24 0.25 0.17 0.19 0.21 0.24 0.20
0.89 1.04 0.99 0.96 0.91 0.75 0.69 0.68 0.66 0.65 0.67 0.67 0.70 0.70 0.68 0.65 0.70 0.69 0.68 0.65 0.65 0.65 0.66 0.72 0.72 0.51 0.46 0.41 0.47 0.47 0.46 0.46 0.50 0.49 0.46 0.45 0.41 0.29 0.28 0.23 0.20 0.20 0.24 0.26 0.21 0.19 0.19
0.74 0.87 1.11 0.94 0.91 0.77 0.67 0.66 0.64 0.65 0.66 0.68 0.70 0.68 0.67 0.67 0.70 0.67 0.62 0.56 0.45 0.41 0.52 0.35 0.42 0.43 0.48 0.51 0.47 0.42 0.44 0.44 0.51 0.43 0.35 0.40 0.31 0.23 0.25 0.27 0.25 0.24 0.27 0.24 0.26 0.28 0.27
0.67 0.81 1.07 0.96 0.91 0.79 0.69 0.64 0.63 0.66 0.66 0.69 0.70 0.68 0.67 0.70 0.68 0.67 0.58 0.43 0.43 0.55 0.32 0.44 0.50 0.49 0.50 0.52 0.35 0.38 0.44 0.38 0.38 0.31 0.35 0.34 0.28 0.33 0.35 0.32 0.31 0.29 0.27 0.26 0.29 0.30 0.28
0.68 0.79 0.90 1.02 0.90 0.83 0.70 0.64 0.62 0.66 0.67 0.70 0.70 0.68 0.69 0.68 0.64 0.59 0.50 0.59 0.85 0.78 0.37 0.37 0.48 0.42 0.42 0.45 0.35 0.35 0.38 0.39 0.34 0.34 0.32 0.27 0.29 0.36 0.34 0.31 0.30 0.28 0.27 0.27 0.27 0.31 0.33
0.65 0.76 0.88 1.02 0.93 0.86 0.71 0.63 0.63 0.67 0.69 0.70 0.70 0.69 0.69 0.65 0.51 0.56 0.60 0.71 0.81 0.85 0.29 0.31 0.36 0.42 0.42 0.43 0.33 0.38 0.41 0.38 0.36 0.35 0.34 0.35 0.39 0.33 0.33 0.32 0.34 0.26 0.33 0.29 0.28 0.26 0.21
0.62 0.68 0.86 1.01 0.98 0.91 0.70 0.64 0.64 0.69 0.70 0.72 0.69 0.70 0.68 0.61 0.53 0.57 0.66 0.83 0.96 0.72 0.17 0.32 0.38 0.46 0.42 0.34 0.30 0.32 0.43 0.37 0.32 0.35 0.34 0.32 0.34 0.33 0.32 0.32 0.34 0.32 0.37 0.33 0.31 0.26 0.25
0.57 0.66 0.82 0.97 1.02 0.94 0.70 0.64 0.67 0.70 0.72 0.71 0.69 0.70 0.69 0.62 0.75 0.72 0.95 0.96 0.74 0.31 0.17 0.29 0.36 0.31 0.33 0.33 0.30 0.33 0.35 0.42 0.42 0.38 0.35 0.32 0.40 0.37 0.34 0.36 0.36 0.38 0.31 0.29 0.29 0.26 0.17
0.58 0.61 0.81 0.95 1.04 0.97 0.70 0.65 0.70 0.72 0.74 0.71 0.70 0.71 0.66 0.70 0.65 0.92 0.97 0.67 0.30 0.20 0.32 0.28 0.28 0.29 0.30 0.28 0.26 0.28 0.29 0.30 0.27 0.24 0.25 0.29 0.32 0.37 0.38 0.31 0.36 0.31 0.22 0.14 0.13 0.15 0.13
0.60 0.67 0.81 0.88 1.06 0.96 0.70 0.66 0.74 0.75 0.76 0.72 0.71 0.73 0.70 0.75 0.93 0.97 0.69 0.42 0.22 0.25 0.27 0.30 0.27 0.28 0.26 0.29 0.25 0.28 0.29 0.27 0.33 0.29 0.27 0.22 0.20 0.31 0.35 0.30 0.26 0.26 0.25 0.14 0.10 0.13 0.18
0.57 0.70 0.82 1.03 1.10 0.90 0.70 0.71 0.75 0.78 0.77 0.75 0.75 0.69 0.68 0.78 0.91 0.88 0.51 0.28 0.22 0.32 0.30 0.26 0.26 0.24 0.26 0.29 0.23 0.27 0.28 0.29 0.32 0.34 0.24 0.24 0.23 0.34 0.34 0.37 0.34 0.28 0.20 0.30 0.23 0.25 0.19
0.58 0.71 0.84 0.97 1.06 0.85 0.69 0.76 0.78 0.80 0.78 0.76 0.62 0.62 0.61 0.91 1.00 0.72 0.39 0.27 0.30 0.45 0.35 0.28 0.19 0.25 0.21 0.24 0.21 0.22 0.26 0.33 0.32 0.35 0.37 0.30 0.22 0.32 0.33 0.36 0.37 0.32 0.35 0.21 0.21 0.11 0.09
0.56 0.72 0.85 0.95 0.97 0.84 0.72 0.77 0.79 0.82 0.81 0.78 0.64 0.50 0.74 1.05 0.88 0.53 0.31 0.28 0.42 0.51 0.40 0.26 0.21 0.19 0.21 0.22 0.24 0.20 0.22 0.29 0.34 0.33 0.35 0.32 0.29 0.27 0.35 0.28 0.23 0.28 0.25 0.23 0.21 0.17 0.09
0.60 0.80 0.91 0.91 0.86 0.83 0.79 0.79 0.81 0.82 0.83 0.78 0.62 0.41 0.93 0.87 0.47 0.42 0.32 0.36 0.55 0.43 0.41 0.30 0.29 0.26 0.22 0.25 0.24 0.23 0.20 0.26 0.36 0.34 0.28 0.35 0.31 0.26 0.32 0.36 0.36 0.30 0.25 0.20 0.13 0.11 0.15
0.72 0.82 0.91 0.99 0.86 0.82 0.83 0.81 0.81 0.82 0.80 0.75 0.55 0.58 0.91 0.71 0.33 0.32 0.38 0.43 0.50 0.39 0.37 0.33 0.31 0.36 0.37 0.32 0.28 0.32 0.32 0.40 0.42 0.37 0.31 0.34 0.29 0.24 0.27 0.31 0.34 0.27 0.26 0.23 0.20 0.19 0.12
0.77 0.85 0.89 0.85 0.85 0.84 0.82 0.83 0.83 0.82 0.81 0.81 0.61 0.44 0.61 0.58 0.45 0.35 0.38 0.38 0.41 0.47 0.41 0.41 0.37 0.39 0.38 0.37 0.43 0.36 0.33 0.40 0.43 0.42 0.42 0.37 0.29 0.26 0.21 0.22 0.25 0.22 0.24 0.23 0.20 0.14 0.12
0.80 0.86 0.85 0.90 0.87 0.85 0.82 0.83 0.84 0.80 0.86 0.85 0.59 0.46 0.55 0.35 0.34 0.36 0.40 0.42 0.39 0.37 0.43 0.44 0.39 0.37 0.36 0.34 0.39 0.37 0.42 0.41 0.46 0.49 0.42 0.32 0.23 0.27 0.28 0.28 0.25 0.21 0.20 0.22 0.19 0.17 0.11
0.84 0.84 0.83 0.90 0.87 0.82 0.83 0.84 0.83 0.80 0.91 0.77 0.50 0.45 0.49 0.37 0.37 0.36 0.39 0.40 0.38 0.41 0.38 0.35 0.33 0.39 0.40 0.34 0.38 0.36 0.41 0.40 0.36 0.43 0.39 0.36 0.23 0.24 0.22 0.27 0.25 0.20 0.21 0.19 0.20 0.19 0.17
0.86 0.83 0.91 0.89 0.83 0.81 0.83 0.84 0.84 0.80 0.88 0.72 0.74 0.60 0.43 0.39 0.36 0.33 0.35 0.42 0.41 0.45 0.45 0.42 0.35 0.35 0.36 0.41 0.50 0.51 0.50 0.44 0.40 0.35 0.34 0.29 0.24 0.21 0.15 0.20 0.19 0.15 0.17 0.17 0.17 0.17 0.16
0.84 0.90 0.90 0.83 0.80 0.81 0.83 0.83 0.84 0.81 0.83 0.78 0.73 0.58 0.39 0.31 0.34 0.32 0.37 0.45 0.41 0.42 0.37 0.39 0.38 0.32 0.41 0.56 0.54 0.50 0.47 0.44 0.41 0.37 0.34 0.24 0.22 0.21 0.14 0.15 0.08 0.12 0.19 0.18 0.16 0.16 0.19
0.93 0.92 0.82 0.79 0.79 0.82 0.83 0.84 0.82 0.82 0.86 0.84 0.78 0.64 0.45 0.30 0.33 0.34 0.37 0.39 0.46 0.46 0.38 0.37 0.42 0.46 0.52 0.45 0.38 0.36 0.36 0.36 0.37 0.41 0.38 0.33 0.23 0.17 0.13 0.12 0.13 0.13 0.15 0.16 0.16 0.14 0.20
0.87 0.80 0.78 0.78 0.82 0.81 0.84 0.83 0.79 0.82 0.85 0.86 0.81 0.79 0.60 0.36 0.29 0.38 0.34 0.39 0.37 0.37 0.37 0.42 0.51 0.53 0.47 0.36 0.33 0.26 0.24 0.29 0.25 0.31 0.42 0.37 0.34 0.25 0.20 0.14 0.11 0.14 0.20 0.28 0.26 0.13 0.23
0.78 0.77 0.80 0.83 0.83 0.85 0.84 0.82 0.78 0.81 0.85 0.84 0.79 0.83 0.69 0.45 0.47 0.42 0.34 0.32 0.44 0.41 0.36 0.42 0.44 0.44 0.47 0.32 0.27 0.25 0.25 0.30 0.23 0.21 0.25 0.28 0.28 0.22 0.20 0.17 0.17 0.21 0.24 0.31 0.14 0.14 0.25
0.79 0.83 0.84 0.87 0.89 0.87 0.84 0.80 0.79 0.79 0.81 0.79 0.80 0.90 0.71 0.57 0.55 0.53 0.49 0.39 0.43 0.44 0.34 0.44 0.42 0.44 0.39 0.30 0.28 0.27 0.26 0.27 0.26 0.27 0.25 0.23 0.21 0.20 0.21 0.17 0.13 0.26 0.28 0.20 0.25 0.30 0.30
0.86 0.88 0.90 0.94 0.93 0.91 0.85 0.79 0.76 0.75 0.77 0.80 0.74 0.93 0.92 0.68 0.58 0.67 0.69 0.70 0.59 0.52 0.46 0.52 0.45 0.43 0.44 0.35 0.33 0.31 0.27 0.29 0.25 0.19 0.32 0.21 0.25 0.21 0.21 0.18 0.26 0.30 0.29 0.34 0.36 0.34 0.36